Observation data for Hackberry on 05/26/2019      Previous  Date  Next       Current Mesonet Observations  Soil Data  Daily Summary Page  Observations in Plain Language
KHA3 260500Z 12011KT 24/21 A2994 RMK A01 T02360210  RH  085%=      5-min Rain = 0
KHA3 260501Z 12011KT 24/21 A2994 RMK A01 T02370211  RH  085%=      5-min Rain = 0
KHA3 260502Z 12011KT 24/21 A2994 RMK A01 T02360211  RH  086%=      5-min Rain = 0
KHA3 260503Z 12010KT 24/21 A2994 RMK A01 T02360211  RH  086%=      5-min Rain = 0
KHA3 260504Z 12012KT 24/21 A2994 RMK A01 T02370211  RH  086%=      5-min Rain = 0
KHA3 260505Z 12010KT 24/21 A2994 RMK A01 T02360211  RH  086%=      5-min Rain = 0
KHA3 260506Z 12011KT 24/21 A2994 RMK A01 T02360211  RH  086%=      5-min Rain = 0
KHA3 260507Z 12011KT 24/21 A2994 RMK A01 T02360211  RH  086%=      5-min Rain = 0
KHA3 260508Z 11009KT 24/21 A2994 RMK A01 T02360211  RH  086%=      5-min Rain = 0
KHA3 260509Z 11011KT 24/21 A2994 RMK A01 T02350211  RH  086%=      5-min Rain = 0
KHA3 260510Z 12011KT 23/21 A2994 RMK A01 T02340210  RH  087%=      5-min Rain = 0
KHA3 260511Z 11010KT 23/21 A2994 RMK A01 T02340211  RH  087%=      5-min Rain = 0
KHA3 260512Z 11012KT 23/21 A2994 RMK A01 T02340210  RH  087%=      5-min Rain = 0
KHA3 260513Z 11011KT 23/21 A2994 RMK A01 T02340210  RH  087%=      5-min Rain = 0
KHA3 260514Z 11011KT 23/21 A2994 RMK A01 T02340210  RH  086%=      5-min Rain = 0
KHA3 260515Z 11011KT 23/21 A2994 RMK A01 T02340210  RH  087%=      5-min Rain = 0
KHA3 260516Z 11010KT 23/21 A2994 RMK A01 T02340210  RH  087%=      5-min Rain = 0
KHA3 260517Z 11010KT 23/21 A2994 RMK A01 T02340211  RH  087%=      5-min Rain = 0
KHA3 260518Z 11011KT 23/21 A2994 RMK A01 T02340210  RH  087%=      5-min Rain = 0
KHA3 260519Z 11011KT 23/21 A2994 RMK A01 T02340210  RH  087%=      5-min Rain = 0
KHA3 260520Z 11010KT 23/21 A2994 RMK A01 T02340210  RH  086%=      5-min Rain = 0
KHA3 260521Z 11012KT 23/21 A2994 RMK A01 T02340210  RH  086%=      5-min Rain = 0
KHA3 260522Z 11011KT 23/21 A2994 RMK A01 T02340210  RH  086%=      5-min Rain = 0
KHA3 260523Z 11011KT 23/21 A2994 RMK A01 T02340210  RH  087%=      5-min Rain = 0
KHA3 260524Z 11010KT 23/21 A2994 RMK A01 T02340211  RH  087%=      5-min Rain = 0
KHA3 260525Z 11011KT 23/21 A2994 RMK A01 T02340210  RH  087%=      5-min Rain = 0
KHA3 260526Z 11009KT 23/21 A2994 RMK A01 T02340211  RH  087%=      5-min Rain = 0
KHA3 260527Z 11010KT 23/21 A2994 RMK A01 T02340210  RH  087%=      5-min Rain = 0
KHA3 260528Z 11010KT 23/21 A2994 RMK A01 T02340210  RH  087%=      5-min Rain = 0
KHA3 260529Z 11009KT 23/21 A2994 RMK A01 T02340211  RH  087%=      5-min Rain = 0
KHA3 260530Z 11009KT 23/21 A2994 RMK A01 T02340211  RH  087%=      5-min Rain = 0
KHA3 260531Z 11010KT 23/21 A2994 RMK A01 T02340211  RH  087%=      5-min Rain = 0
KHA3 260532Z 11010KT 23/21 A2994 RMK A01 T02330211  RH  087%=      5-min Rain = 0
KHA3 260533Z 11010KT 23/21 A2994 RMK A01 T02330210  RH  087%=      5-min Rain = 0
KHA3 260534Z 11011KT 23/21 A2994 RMK A01 T02330210  RH  087%=      5-min Rain = 0
KHA3 260535Z 11011KT 23/21 A2994 RMK A01 T02330210  RH  087%=      5-min Rain = 0
KHA3 260536Z 11010KT 23/21 A2994 RMK A01 T02330210  RH  087%=      5-min Rain = 0
KHA3 260537Z 11009KT 23/21 A2994 RMK A01 T02330210  RH  087%=      5-min Rain = 0
KHA3 260538Z 11012KT 23/21 A2994 RMK A01 T02330210  RH  087%=      5-min Rain = 0
KHA3 260539Z 11010KT 23/21 A2994 RMK A01 T02330210  RH  087%=      5-min Rain = 0
KHA3 260540Z 11010KT 23/21 A2994 RMK A01 T02330210  RH  087%=      5-min Rain = 0
KHA3 260541Z 12011KT 23/21 A2994 RMK A01 T02330210  RH  087%=      5-min Rain = 0
KHA3 260542Z 12011KT 23/21 A2994 RMK A01 T02330210  RH  087%=      5-min Rain = 0
KHA3 260543Z 12011KT 23/21 A2994 RMK A01 T02330210  RH  087%=      5-min Rain = 0
KHA3 260544Z 12011KT 23/21 A2994 RMK A01 T02320210  RH  087%=      5-min Rain = 0
KHA3 260545Z 11011KT 23/21 A2994 RMK A01 T02320210  RH  087%=      5-min Rain = 0
KHA3 260546Z 11011KT 23/21 A2994 RMK A01 T02320210  RH  087%=      5-min Rain = 0
KHA3 260547Z 11011KT 23/21 A2994 RMK A01 T02320210  RH  087%=      5-min Rain = 0
KHA3 260548Z 11012KT 23/21 A2994 RMK A01 T02310209  RH  087%=      5-min Rain = 0
KHA3 260549Z 12009KT 23/21 A2994 RMK A01 T02310209  RH  087%=      5-min Rain = 0
KHA3 260550Z 11011KT 23/21 A2994 RMK A01 T02310210  RH  088%=      5-min Rain = 0
KHA3 260551Z 12010KT 23/21 A2994 RMK A01 T02310209  RH  088%=      5-min Rain = 0
KHA3 260552Z 11012KT 23/21 A2994 RMK A01 T02310210  RH  088%=      5-min Rain = 0
KHA3 260553Z 12010KT 23/21 A2994 RMK A01 T02310209  RH  088%=      5-min Rain = 0
KHA3 260554Z 12011KT 23/21 A2994 RMK A01 T02310209  RH  088%=      5-min Rain = 0
KHA3 260555Z 12011KT 23/21 A2994 RMK A01 T02310209  RH  088%=      5-min Rain = 0
KHA3 260556Z 11010KT 23/21 A2994 RMK A01 T02310209  RH  088%=      5-min Rain = 0
KHA3 260557Z 11011KT 23/21 A2994 RMK A01 T02310210  RH  088%=      5-min Rain = 0
KHA3 260558Z 12010KT 23/21 A2994 RMK A01 T02310209  RH  088%=      5-min Rain = 0
KHA3 260559Z 11010KT 23/21 A2994 RMK A01 T02310210  RH  088%=      5-min Rain = 0
KHA3 260600Z 12010KT 23/21 A2994 RMK A01 T02310210  RH  088%=      5-min Rain = 0
KHA3 260601Z 11011KT 23/21 A2994 RMK A01 T02300210  RH  088%=      5-min Rain = 0
KHA3 260602Z 11009KT 23/21 A2994 RMK A01 T02300210  RH  088%=      5-min Rain = 0
KHA3 260603Z 12011KT 23/21 A2994 RMK A01 T02300210  RH  088%=      5-min Rain = 0
KHA3 260604Z 12011KT 23/21 A2994 RMK A01 T02300210  RH  088%=      5-min Rain = 0
KHA3 260605Z 12011KT 23/21 A2994 RMK A01 T02300209  RH  088%=      5-min Rain = 0
KHA3 260606Z 11012KT 23/21 A2994 RMK A01 T02300209  RH  088%=      5-min Rain = 0
KHA3 260607Z 11010KT 23/21 A2994 RMK A01 T02300210  RH  088%=      5-min Rain = 0
KHA3 260608Z 11012KT 23/21 A2994 RMK A01 T02300210  RH  088%=      5-min Rain = 0
KHA3 260609Z 11011KT 23/21 A2994 RMK A01 T02300210  RH  088%=      5-min Rain = 0
KHA3 260610Z 11010KT 23/21 A2994 RMK A01 T02300209  RH  088%=      5-min Rain = 0
KHA3 260611Z 11010KT 23/21 A2994 RMK A01 T02300210  RH  088%=      5-min Rain = 0
KHA3 260612Z 11010KT 23/21 A2994 RMK A01 T02290210  RH  089%=      5-min Rain = 0
KHA3 260613Z 11010KT 23/21 A2994 RMK A01 T02290210  RH  089%=      5-min Rain = 0
KHA3 260614Z 11010KT 23/21 A2994 RMK A01 T02290209  RH  089%=      5-min Rain = 0
KHA3 260615Z 11010KT 23/21 A2994 RMK A01 T02290209  RH  089%=      5-min Rain = 0
KHA3 260616Z 11011KT 23/21 A2994 RMK A01 T02280209  RH  089%=      5-min Rain = 0
KHA3 260617Z 12011KT 23/21 A2994 RMK A01 T02290210  RH  089%=      5-min Rain = 0
KHA3 260618Z 12011KT 23/21 A2994 RMK A01 T02280209  RH  089%=      5-min Rain = 0
KHA3 260619Z 11010KT 23/21 A2994 RMK A01 T02290209  RH  089%=      5-min Rain = 0
KHA3 260620Z 12009KT 23/21 A2994 RMK A01 T02280209  RH  089%=      5-min Rain = 0
KHA3 260621Z 11010KT 23/21 A2994 RMK A01 T02280209  RH  089%=      5-min Rain = 0
KHA3 260622Z 12009KT 23/21 A2994 RMK A01 T02280209  RH  089%=      5-min Rain = 0
KHA3 260623Z 12011KT 23/21 A2994 RMK A01 T02280209  RH  089%=      5-min Rain = 0
KHA3 260624Z 12010KT 23/21 A2994 RMK A01 T02280209  RH  089%=      5-min Rain = 0
KHA3 260625Z 12010KT 23/21 A2994 RMK A01 T02270209  RH  089%=      5-min Rain = 0
KHA3 260626Z 12010KT 23/21 A2994 RMK A01 T02270209  RH  089%=      5-min Rain = 0
KHA3 260627Z 12009KT 23/21 A2994 RMK A01 T02270209  RH  090%=      5-min Rain = 0
KHA3 260628Z 12010KT 23/21 A2994 RMK A01 T02260209  RH  090%=      5-min Rain = 0
KHA3 260629Z 12011KT 23/21 A2994 RMK A01 T02260209  RH  090%=      5-min Rain = 0
KHA3 260630Z 12010KT 23/21 A2994 RMK A01 T02260209  RH  090%=      5-min Rain = 0
KHA3 260631Z 12010KT 23/21 A2994 RMK A01 T02260209  RH  090%=      5-min Rain = 0
KHA3 260632Z 12010KT 23/21 A2994 RMK A01 T02260209  RH  090%=      5-min Rain = 0
KHA3 260633Z 12010KT 23/21 A2994 RMK A01 T02260209  RH  090%=      5-min Rain = 0
KHA3 260634Z 12010KT 23/21 A2994 RMK A01 T02250209  RH  090%=      5-min Rain = 0
KHA3 260635Z 11009KT 23/21 A2994 RMK A01 T02250209  RH  090%=      5-min Rain = 0
KHA3 260636Z 11009KT 23/21 A2994 RMK A01 T02250209  RH  091%=      5-min Rain = 0
KHA3 260637Z 12010KT 23/21 A2994 RMK A01 T02250209  RH  091%=      5-min Rain = 0
KHA3 260638Z 11011KT 22/21 A2994 RMK A01 T02240209  RH  091%=      5-min Rain = 0
KHA3 260639Z 12009KT 23/21 A2994 RMK A01 T02250209  RH  091%=      5-min Rain = 0
KHA3 260640Z 12010KT 23/21 A2994 RMK A01 T02250208  RH  090%=      5-min Rain = 0
KHA3 260641Z 12010KT 23/21 A2994 RMK A01 T02250208  RH  090%=      5-min Rain = 0
KHA3 260642Z 12010KT 23/21 A2994 RMK A01 T02250209  RH  090%=      5-min Rain = 0
KHA3 260643Z 12009KT 23/21 A2994 RMK A01 T02250208  RH  090%=      5-min Rain = 0
KHA3 260644Z 12010KT 22/21 A2994 RMK A01 T02240208  RH  091%=      5-min Rain = 0
KHA3 260645Z 12010KT 22/21 A2994 RMK A01 T02240208  RH  091%=      5-min Rain = 0
KHA3 260646Z 12009KT 23/21 A2994 RMK A01 T02250208  RH  091%=      5-min Rain = 0
KHA3 260647Z 12010KT 22/21 A2994 RMK A01 T02240208  RH  091%=      5-min Rain = 0
KHA3 260648Z 11009KT 22/21 A2994 RMK A01 T02240208  RH  091%=      5-min Rain = 0
KHA3 260649Z 12009KT 22/21 A2994 RMK A01 T02240208  RH  091%=      5-min Rain = 0
KHA3 260650Z 12009KT 22/21 A2994 RMK A01 T02240208  RH  091%=      5-min Rain = 0
KHA3 260651Z 12008KT 22/21 A2994 RMK A01 T02230208  RH  091%=      5-min Rain = 0
KHA3 260652Z 12012KT 22/21 A2994 RMK A01 T02240208  RH  091%=      5-min Rain = 0
KHA3 260653Z 12011KT 22/21 A2994 RMK A01 T02240208  RH  091%=      5-min Rain = 0
KHA3 260654Z 12010KT 22/21 A2994 RMK A01 T02240208  RH  091%=      5-min Rain = 0
KHA3 260655Z 11010KT 22/21 A2994 RMK A01 T02240208  RH  090%=      5-min Rain = 0
KHA3 260656Z 12009KT 22/21 A2994 RMK A01 T02240208  RH  090%=      5-min Rain = 0
KHA3 260657Z 12010KT 22/21 A2994 RMK A01 T02240208  RH  090%=      5-min Rain = 0
KHA3 260658Z 12010KT 22/21 A2994 RMK A01 T02240208  RH  091%=      5-min Rain = 0
KHA3 260659Z 13010KT 22/21 A2994 RMK A01 T02240208  RH  091%=      5-min Rain = 0
KHA3 260700Z 12010KT 22/21 A2994 RMK A01 T02240208  RH  091%=      5-min Rain = 0
KHA3 260701Z 12011KT 22/21 A2994 RMK A01 T02240208  RH  091%=      5-min Rain = 0
KHA3 260702Z 12011KT 22/21 A2994 RMK A01 T02240207  RH  090%=      5-min Rain = 0
KHA3 260703Z 12011KT 22/21 A2994 RMK A01 T02240207  RH  090%=      5-min Rain = 0
KHA3 260704Z 12011KT 22/21 A2994 RMK A01 T02240207  RH  090%=      5-min Rain = 0
KHA3 260705Z 12011KT 22/21 A2993 RMK A01 T02240208  RH  090%=      5-min Rain = 0
KHA3 260706Z 12011KT 22/21 A2993 RMK A01 T02240207  RH  090%=      5-min Rain = 0
KHA3 260707Z 12010KT 22/21 A2994 RMK A01 T02240207  RH  090%=      5-min Rain = 0
KHA3 260708Z 12009KT 22/21 A2994 RMK A01 T02230207  RH  090%=      5-min Rain = 0
KHA3 260709Z 12011KT 22/21 A2994 RMK A01 T02230207  RH  091%=      5-min Rain = 0
KHA3 260710Z 12011KT 22/21 A2994 RMK A01 T02230207  RH  091%=      5-min Rain = 0
KHA3 260711Z 12011KT 22/21 A2994 RMK A01 T02230207  RH  091%=      5-min Rain = 0
KHA3 260712Z 12011G16KT 22/21 A2993 RMK A01 T02230207  RH  090%=      5-min Rain = 0
KHA3 260713Z 12011KT 22/21 A2994 RMK A01 T02230207  RH  090%=      5-min Rain = 0
KHA3 260714Z 12011KT 22/21 A2994 RMK A01 T02240207  RH  090%=      5-min Rain = 0
KHA3 260715Z 12010KT 22/21 A2994 RMK A01 T02240207  RH  090%=      5-min Rain = 0
KHA3 260716Z 12010KT 22/21 A2993 RMK A01 T02230207  RH  090%=      5-min Rain = 0
KHA3 260717Z 12012KT 22/21 A2993 RMK A01 T02230207  RH  091%=      5-min Rain = 0
KHA3 260718Z 12011KT 22/21 A2994 RMK A01 T02230207  RH  091%=      5-min Rain = 0
KHA3 260719Z 12012KT 22/21 A2994 RMK A01 T02230207  RH  090%=      5-min Rain = 0
KHA3 260720Z 12010KT 22/21 A2993 RMK A01 T02230207  RH  090%=      5-min Rain = 0
KHA3 260721Z 12010KT 22/21 A2993 RMK A01 T02230206  RH  090%=      5-min Rain = 0
KHA3 260722Z 12011KT 22/21 A2993 RMK A01 T02230206  RH  090%=      5-min Rain = 0
KHA3 260723Z 12011KT 22/21 A2993 RMK A01 T02220206  RH  090%=      5-min Rain = 0
KHA3 260724Z 13010KT 22/21 A2993 RMK A01 T02230206  RH  090%=      5-min Rain = 0
KHA3 260725Z 12010KT 22/21 A2993 RMK A01 T02220206  RH  091%=      5-min Rain = 0
KHA3 260726Z 12011KT 22/21 A2993 RMK A01 T02220206  RH  091%=      5-min Rain = 0
KHA3 260727Z 12013KT 22/21 A2993 RMK A01 T02220206  RH  091%=      5-min Rain = 0
KHA3 260728Z 13012KT 22/21 A2993 RMK A01 T02220206  RH  090%=      5-min Rain = 0
KHA3 260729Z 13012KT 22/21 A2993 RMK A01 T02230206  RH  090%=      5-min Rain = 0
KHA3 260730Z 12011KT 22/21 A2993 RMK A01 T02230205  RH  090%=      5-min Rain = 0
KHA3 260731Z 13011KT 22/21 A2993 RMK A01 T02230206  RH  090%=      5-min Rain = 0
KHA3 260732Z 12011KT 22/21 A2993 RMK A01 T02230206  RH  090%=      5-min Rain = 0
KHA3 260733Z 13011KT 22/21 A2994 RMK A01 T02230206  RH  090%=      5-min Rain = 0
KHA3 260734Z 12011KT 22/21 A2994 RMK A01 T02230206  RH  090%=      5-min Rain = 0
KHA3 260735Z 13011KT 22/21 A2994 RMK A01 T02220205  RH  090%=      5-min Rain = 0
KHA3 260736Z 12014KT 22/21 A2994 RMK A01 T02220205  RH  090%=      5-min Rain = 0
KHA3 260737Z 13012KT 22/21 A2994 RMK A01 T02230205  RH  090%=      5-min Rain = 0
KHA3 260738Z 13011KT 22/21 A2994 RMK A01 T02230205  RH  089%=      5-min Rain = 0
KHA3 260739Z 13011G16KT 22/21 A2994 RMK A01 T02230205  RH  090%=      5-min Rain = 0
KHA3 260740Z 13012KT 22/21 A2994 RMK A01 T02230205  RH  090%=      5-min Rain = 0
KHA3 260741Z 13012KT 22/21 A2994 RMK A01 T02230205  RH  089%=      5-min Rain = 0
KHA3 260742Z 13013KT 22/21 A2994 RMK A01 T02230205  RH  089%=      5-min Rain = 0
KHA3 260743Z 13012KT 22/21 A2994 RMK A01 T02230205  RH  089%=      5-min Rain = 0
KHA3 260744Z 13012KT 22/21 A2994 RMK A01 T02240205  RH  089%=      5-min Rain = 0
KHA3 260745Z 13011KT 22/21 A2994 RMK A01 T02240205  RH  089%=      5-min Rain = 0
KHA3 260746Z 13012KT 22/21 A2994 RMK A01 T02240205  RH  089%=      5-min Rain = 0
KHA3 260747Z 13011KT 22/21 A2994 RMK A01 T02240205  RH  089%=      5-min Rain = 0
KHA3 260748Z 13011KT 22/21 A2994 RMK A01 T02240205  RH  089%=      5-min Rain = 0
KHA3 260749Z 13010KT 22/21 A2994 RMK A01 T02240205  RH  089%=      5-min Rain = 0
KHA3 260750Z 13012KT 22/21 A2994 RMK A01 T02230205  RH  089%=      5-min Rain = 0
KHA3 260751Z 13011KT 22/21 A2994 RMK A01 T02230205  RH  089%=      5-min Rain = 0
KHA3 260752Z 13010KT 22/21 A2994 RMK A01 T02230205  RH  089%=      5-min Rain = 0
KHA3 260753Z 13012KT 22/20 A2994 RMK A01 T02220204  RH  089%=      5-min Rain = 0
KHA3 260754Z 13009KT 22/20 A2994 RMK A01 T02230204  RH  089%=      5-min Rain = 0
KHA3 260755Z 13011KT 22/21 A2994 RMK A01 T02230205  RH  089%=      5-min Rain = 0
KHA3 260756Z 13011KT 22/20 A2994 RMK A01 T02230204  RH  089%=      5-min Rain = 0
KHA3 260757Z 13011KT 22/21 A2994 RMK A01 T02230205  RH  089%=      5-min Rain = 0
KHA3 260758Z 14010KT 22/21 A2994 RMK A01 T02230205  RH  089%=      5-min Rain = 0
KHA3 260759Z 13011KT 22/20 A2994 RMK A01 T02230204  RH  089%=      5-min Rain = 0
KHA3 260800Z 13011KT 22/20 A2994 RMK A01 T02230204  RH  089%=      5-min Rain = 0
KHA3 260801Z 13010KT 22/20 A2994 RMK A01 T02230204  RH  089%=      5-min Rain = 0
KHA3 260802Z 13010KT 22/20 A2994 RMK A01 T02230204  RH  089%=      5-min Rain = 0
KHA3 260803Z 13011KT 22/20 A2994 RMK A01 T02230204  RH  089%=      5-min Rain = 0
KHA3 260804Z 13011KT 22/20 A2994 RMK A01 T02220204  RH  089%=      5-min Rain = 0
KHA3 260805Z 13010KT 22/20 A2994 RMK A01 T02220204  RH  089%=      5-min Rain = 0
KHA3 260806Z 13011KT 22/20 A2994 RMK A01 T02230204  RH  089%=      5-min Rain = 0
KHA3 260807Z 14010KT 22/20 A2994 RMK A01 T02220204  RH  089%=      5-min Rain = 0
KHA3 260808Z 14010KT 22/20 A2994 RMK A01 T02220204  RH  089%=      5-min Rain = 0
KHA3 260809Z 14010KT 22/20 A2994 RMK A01 T02220204  RH  089%=      5-min Rain = 0
KHA3 260810Z 13009KT 22/20 A2994 RMK A01 T02220204  RH  089%=      5-min Rain = 0
KHA3 260811Z 14010KT 22/20 A2994 RMK A01 T02220204  RH  089%=      5-min Rain = 0
KHA3 260812Z 14011KT 22/20 A2994 RMK A01 T02220204  RH  089%=      5-min Rain = 0
KHA3 260813Z 13009KT 22/20 A2994 RMK A01 T02220204  RH  089%=      5-min Rain = 0
KHA3 260814Z 13012KT 22/20 A2994 RMK A01 T02210203  RH  090%=      5-min Rain = 0
KHA3 260815Z 14010KT 22/20 A2994 RMK A01 T02210203  RH  090%=      5-min Rain = 0
KHA3 260816Z 13011KT 22/20 A2994 RMK A01 T02210203  RH  090%=      5-min Rain = 0
KHA3 260817Z 13010KT 22/20 A2994 RMK A01 T02210204  RH  090%=      5-min Rain = 0
KHA3 260818Z 14010KT 22/20 A2994 RMK A01 T02210203  RH  089%=      5-min Rain = 0
KHA3 260819Z 14010KT 22/20 A2994 RMK A01 T02210204  RH  090%=      5-min Rain = 0
KHA3 260820Z 14011KT 22/20 A2994 RMK A01 T02210203  RH  090%=      5-min Rain = 0
KHA3 260821Z 14010KT 22/20 A2994 RMK A01 T02200203  RH  090%=      5-min Rain = 0
KHA3 260822Z 14012KT 22/20 A2993 RMK A01 T02200203  RH  090%=      5-min Rain = 0
KHA3 260823Z 14010KT 22/20 A2993 RMK A01 T02210203  RH  090%=      5-min Rain = 0
KHA3 260824Z 14011KT 22/20 A2993 RMK A01 T02210203  RH  090%=      5-min Rain = 0
KHA3 260825Z 14011KT 22/20 A2993 RMK A01 T02210203  RH  090%=      5-min Rain = 0
KHA3 260826Z 14011KT 22/20 A2993 RMK A01 T02210203  RH  090%=      5-min Rain = 0
KHA3 260827Z 14012KT 22/20 A2993 RMK A01 T02210203  RH  090%=      5-min Rain = 0
KHA3 260828Z 14011KT 22/20 A2993 RMK A01 T02210203  RH  090%=      5-min Rain = 0
KHA3 260829Z 14010KT 22/20 A2993 RMK A01 T02210203  RH  090%=      5-min Rain = 0
KHA3 260830Z 14011KT 22/20 A2993 RMK A01 T02200203  RH  090%=      5-min Rain = 0
KHA3 260831Z 14011KT 22/20 A2993 RMK A01 T02200203  RH  090%=      5-min Rain = 0
KHA3 260832Z 14010KT 22/20 A2993 RMK A01 T02200203  RH  090%=      5-min Rain = 0
KHA3 260833Z 14011KT 22/20 A2993 RMK A01 T02200203  RH  090%=      5-min Rain = 0
KHA3 260834Z 14012KT 22/20 A2993 RMK A01 T02200203  RH  090%=      5-min Rain = 0
KHA3 260835Z 14011KT 22/20 A2993 RMK A01 T02200203  RH  090%=      5-min Rain = 0
KHA3 260836Z 14009KT 22/20 A2993 RMK A01 T02190202  RH  090%=      5-min Rain = 0
KHA3 260837Z 14010KT 22/20 A2993 RMK A01 T02190202  RH  090%=      5-min Rain = 0
KHA3 260838Z 14011KT 22/20 A2993 RMK A01 T02190202  RH  090%=      5-min Rain = 0
KHA3 260839Z 14011KT 22/20 A2993 RMK A01 T02190202  RH  090%=      5-min Rain = 0
KHA3 260840Z 15011KT 22/20 A2993 RMK A01 T02190202  RH  090%=      5-min Rain = 0
KHA3 260841Z 15011KT 22/20 A2993 RMK A01 T02190202  RH  090%=      5-min Rain = 0
KHA3 260842Z 14010KT 22/20 A2993 RMK A01 T02190202  RH  090%=      5-min Rain = 0
KHA3 260843Z 15011KT 22/20 A2993 RMK A01 T02190202  RH  090%=      5-min Rain = 0
KHA3 260844Z 15010KT 22/20 A2993 RMK A01 T02190202  RH  090%=      5-min Rain = 0
KHA3 260845Z 14011KT 22/20 A2993 RMK A01 T02190202  RH  090%=      5-min Rain = 0
KHA3 260846Z 14011KT 22/20 A2993 RMK A01 T02190202  RH  090%=      5-min Rain = 0
KHA3 260847Z 14011KT 22/20 A2993 RMK A01 T02190202  RH  090%=      5-min Rain = 0
KHA3 260848Z 15011KT 22/20 A2993 RMK A01 T02190202  RH  090%=      5-min Rain = 0
KHA3 260849Z 14011KT 22/20 A2993 RMK A01 T02180202  RH  090%=      5-min Rain = 0
KHA3 260850Z 14010KT 22/20 A2993 RMK A01 T02190202  RH  090%=      5-min Rain = 0
KHA3 260851Z 14011KT 22/20 A2993 RMK A01 T02190202  RH  090%=      5-min Rain = 0
KHA3 260852Z 15011KT 22/20 A2993 RMK A01 T02190202  RH  090%=      5-min Rain = 0
KHA3 260853Z 14010KT 22/20 A2993 RMK A01 T02190202  RH  090%=      5-min Rain = 0
KHA3 260854Z 14012KT 22/20 A2993 RMK A01 T02190202  RH  090%=      5-min Rain = 0
KHA3 260855Z 14010KT 22/20 A2993 RMK A01 T02190201  RH  090%=      5-min Rain = 0
KHA3 260856Z 14010KT 22/20 A2993 RMK A01 T02190201  RH  090%=      5-min Rain = 0
KHA3 260857Z 14010KT 22/20 A2993 RMK A01 T02190201  RH  090%=      5-min Rain = 0
KHA3 260858Z 14011KT 22/20 A2993 RMK A01 T02190202  RH  090%=      5-min Rain = 0
KHA3 260859Z 14011KT 22/20 A2993 RMK A01 T02190202  RH  090%=      5-min Rain = 0
KHA3 260900Z 15011KT 22/20 A2993 RMK A01 T02190201  RH  090%=      5-min Rain = 0
KHA3 260901Z 14011KT 22/20 A2993 RMK A01 T02190201  RH  089%=      5-min Rain = 0
KHA3 260902Z 15010KT 22/20 A2993 RMK A01 T02190201  RH  089%=      5-min Rain = 0
KHA3 260903Z 14010KT 22/20 A2993 RMK A01 T02190201  RH  089%=      5-min Rain = 0
KHA3 260904Z 14012KT 22/20 A2993 RMK A01 T02190201  RH  090%=      5-min Rain = 0
KHA3 260905Z 15012KT 22/20 A2993 RMK A01 T02190201  RH  089%=      5-min Rain = 0
KHA3 260906Z 15009KT 22/20 A2993 RMK A01 T02200201  RH  089%=      5-min Rain = 0
KHA3 260907Z 14009KT 22/20 A2993 RMK A01 T02190201  RH  089%=      5-min Rain = 0
KHA3 260908Z 15010KT 22/20 A2993 RMK A01 T02190201  RH  089%=      5-min Rain = 0
KHA3 260909Z 15010KT 22/20 A2993 RMK A01 T02190201  RH  089%=      5-min Rain = 0
KHA3 260910Z 15011KT 22/20 A2993 RMK A01 T02180201  RH  090%=      5-min Rain = 0
KHA3 260911Z 15011KT 22/20 A2993 RMK A01 T02190201  RH  090%=      5-min Rain = 0
KHA3 260912Z 15010KT 22/20 A2993 RMK A01 T02180200  RH  089%=      5-min Rain = 0
KHA3 260913Z 15012KT 22/20 A2993 RMK A01 T02190200  RH  089%=      5-min Rain = 0
KHA3 260914Z 14011KT 22/20 A2993 RMK A01 T02190201  RH  089%=      5-min Rain = 0
KHA3 260915Z 15011KT 22/20 A2993 RMK A01 T02190200  RH  089%=      5-min Rain = 0
KHA3 260916Z 15012KT 22/20 A2993 RMK A01 T02190200  RH  089%=      5-min Rain = 0
KHA3 260917Z 14012KT 22/20 A2993 RMK A01 T02190201  RH  089%=      5-min Rain = 0
KHA3 260918Z 15010KT 22/20 A2993 RMK A01 T02190201  RH  089%=      5-min Rain = 0
KHA3 260919Z 14010KT 22/20 A2993 RMK A01 T02190200  RH  089%=      5-min Rain = 0
KHA3 260920Z 15012KT 22/20 A2993 RMK A01 T02180200  RH  089%=      5-min Rain = 0
KHA3 260921Z 15011KT 22/20 A2993 RMK A01 T02180200  RH  090%=      5-min Rain = 0
KHA3 260922Z 15011KT 22/20 A2993 RMK A01 T02180200  RH  090%=      5-min Rain = 0
KHA3 260923Z 14012KT 22/20 A2993 RMK A01 T02170200  RH  090%=      5-min Rain = 0
KHA3 260924Z 14011KT 22/20 A2993 RMK A01 T02180200  RH  090%=      5-min Rain = 0
KHA3 260925Z 15011KT 22/20 A2993 RMK A01 T02180200  RH  089%=      5-min Rain = 0
KHA3 260926Z 14012KT 22/20 A2993 RMK A01 T02180200  RH  089%=      5-min Rain = 0
KHA3 260927Z 15012KT 22/20 A2993 RMK A01 T02180200  RH  089%=      5-min Rain = 0
KHA3 260928Z 14011KT 22/20 A2993 RMK A01 T02180200  RH  090%=      5-min Rain = 0
KHA3 260929Z 15010KT 22/20 A2993 RMK A01 T02180200  RH  090%=      5-min Rain = 0
KHA3 260930Z 15012KT 22/20 A2993 RMK A01 T02170200  RH  090%=      5-min Rain = 0
KHA3 260931Z 14012KT 22/20 A2993 RMK A01 T02170200  RH  090%=      5-min Rain = 0
KHA3 260932Z 15011G16KT 22/20 A2993 RMK A01 T02170199  RH  090%=      5-min Rain = 0
KHA3 260933Z 15013KT 22/20 A2993 RMK A01 T02170199  RH  090%=      5-min Rain = 0
KHA3 260934Z 15010KT 22/20 A2993 RMK A01 T02170200  RH  090%=      5-min Rain = 0
KHA3 260935Z 15011KT 22/20 A2993 RMK A01 T02170199  RH  090%=      5-min Rain = 0
KHA3 260936Z 15013KT 22/20 A2993 RMK A01 T02170200  RH  090%=      5-min Rain = 0
KHA3 260937Z 14011KT 22/20 A2993 RMK A01 T02170199  RH  090%=      5-min Rain = 0
KHA3 260938Z 15012KT 22/20 A2993 RMK A01 T02170199  RH  090%=      5-min Rain = 0
KHA3 260939Z 15012KT 22/20 A2993 RMK A01 T02170199  RH  090%=      5-min Rain = 0
KHA3 260940Z 15012KT 22/20 A2993 RMK A01 T02170200  RH  090%=      5-min Rain = 0
KHA3 260941Z 15010KT 22/20 A2993 RMK A01 T02170199  RH  090%=      5-min Rain = 0
KHA3 260942Z 14012KT 22/20 A2993 RMK A01 T02170199  RH  090%=      5-min Rain = 0
KHA3 260943Z 14013KT 22/20 A2993 RMK A01 T02170200  RH  090%=      5-min Rain = 0
KHA3 260944Z 14013KT 22/20 A2993 RMK A01 T02160199  RH  090%=      5-min Rain = 0
KHA3 260945Z 15012KT 22/20 A2993 RMK A01 T02170199  RH  090%=      5-min Rain = 0
KHA3 260946Z 15011KT 22/20 A2993 RMK A01 T02170199  RH  090%=      5-min Rain = 0
KHA3 260947Z 14012KT 22/20 A2993 RMK A01 T02170199  RH  089%=      5-min Rain = 0
KHA3 260948Z 15011KT 22/20 A2993 RMK A01 T02170199  RH  090%=      5-min Rain = 0
KHA3 260949Z 14011KT 22/20 A2993 RMK A01 T02160199  RH  090%=      5-min Rain = 0
KHA3 260950Z 14011KT 22/20 A2993 RMK A01 T02160199  RH  090%=      5-min Rain = 0
KHA3 260951Z 15011KT 22/20 A2993 RMK A01 T02170199  RH  090%=      5-min Rain = 0
KHA3 260952Z 15011G16KT 22/20 A2993 RMK A01 T02170199  RH  090%=      5-min Rain = 0
KHA3 260953Z 14012KT 22/20 A2993 RMK A01 T02160199  RH  090%=      5-min Rain = 0
KHA3 260954Z 14010KT 22/20 A2993 RMK A01 T02160198  RH  090%=      5-min Rain = 0
KHA3 260955Z 15009KT 22/20 A2993 RMK A01 T02170198  RH  089%=      5-min Rain = 0
KHA3 260956Z 14011KT 22/20 A2993 RMK A01 T02170198  RH  089%=      5-min Rain = 0
KHA3 260957Z 15010G15KT 22/20 A2993 RMK A01 T02170199  RH  090%=      5-min Rain = 0
KHA3 260958Z 14010KT 22/20 A2993 RMK A01 T02170199  RH  090%=      5-min Rain = 0
KHA3 260959Z 14011KT 22/20 A2993 RMK A01 T02170198  RH  089%=      5-min Rain = 0
KHA3 261000Z 14009KT 22/20 A2994 RMK A01 T02170198  RH  089%=      5-min Rain = 0
KHA3 261001Z 14010KT 22/20 A2994 RMK A01 T02170198  RH  089%=      5-min Rain = 0
KHA3 261002Z 14009KT 22/20 A2994 RMK A01 T02160198  RH  090%=      5-min Rain = 0
KHA3 261003Z 14009KT 22/20 A2994 RMK A01 T02160198  RH  090%=      5-min Rain = 0
KHA3 261004Z 15009KT 22/20 A2994 RMK A01 T02160198  RH  089%=      5-min Rain = 0
KHA3 261005Z 14009KT 22/20 A2994 RMK A01 T02170198  RH  089%=      5-min Rain = 0
KHA3 261006Z 15009KT 22/20 A2994 RMK A01 T02160198  RH  089%=      5-min Rain = 0
KHA3 261007Z 15010KT 22/20 A2994 RMK A01 T02160198  RH  089%=      5-min Rain = 0
KHA3 261008Z 15011KT 22/20 A2994 RMK A01 T02160198  RH  090%=      5-min Rain = 0
KHA3 261009Z 15010KT 22/20 A2994 RMK A01 T02160198  RH  089%=      5-min Rain = 0
KHA3 261010Z 14009KT 22/20 A2994 RMK A01 T02160197  RH  089%=      5-min Rain = 0
KHA3 261011Z 14009KT 22/20 A2994 RMK A01 T02160198  RH  089%=      5-min Rain = 0
KHA3 261012Z 14011KT 22/20 A2994 RMK A01 T02160198  RH  089%=      5-min Rain = 0
KHA3 261013Z 15010KT 22/20 A2994 RMK A01 T02160198  RH  089%=      5-min Rain = 0
KHA3 261014Z 14010KT 22/20 A2994 RMK A01 T02160198  RH  089%=      5-min Rain = 0
KHA3 261015Z 15010KT 22/20 A2994 RMK A01 T02160198  RH  089%=      5-min Rain = 0
KHA3 261016Z 15011KT 22/20 A2994 RMK A01 T02160198  RH  089%=      5-min Rain = 0
KHA3 261017Z 15012KT 22/20 A2994 RMK A01 T02160198  RH  089%=      5-min Rain = 0
KHA3 261018Z 14010KT 22/20 A2994 RMK A01 T02160197  RH  089%=      5-min Rain = 0
KHA3 261019Z 15009KT 22/20 A2994 RMK A01 T02160198  RH  089%=      5-min Rain = 0
KHA3 261020Z 15011KT 22/20 A2994 RMK A01 T02160198  RH  089%=      5-min Rain = 0
KHA3 261021Z 14010KT 22/20 A2994 RMK A01 T02160198  RH  089%=      5-min Rain = 0
KHA3 261022Z 15011KT 22/20 A2994 RMK A01 T02160198  RH  089%=      5-min Rain = 0
KHA3 261023Z 14011KT 22/20 A2994 RMK A01 T02160198  RH  089%=      5-min Rain = 0
KHA3 261024Z 15011KT 22/20 A2994 RMK A01 T02160198  RH  089%=      5-min Rain = 0
KHA3 261025Z 14011KT 22/20 A2994 RMK A01 T02160198  RH  089%=      5-min Rain = 0
KHA3 261026Z 14010KT 22/20 A2994 RMK A01 T02160198  RH  089%=      5-min Rain = 0
KHA3 261027Z 14010KT 22/20 A2994 RMK A01 T02160197  RH  089%=      5-min Rain = 0
KHA3 261028Z 14010KT 22/20 A2994 RMK A01 T02160197  RH  089%=      5-min Rain = 0
KHA3 261029Z 15011KT 22/20 A2994 RMK A01 T02160197  RH  089%=      5-min Rain = 0
KHA3 261030Z 14009KT 22/20 A2994 RMK A01 T02150197  RH  089%=      5-min Rain = 0
KHA3 261031Z 14010KT 22/20 A2995 RMK A01 T02160197  RH  089%=      5-min Rain = 0
KHA3 261032Z 14010KT 22/20 A2995 RMK A01 T02150197  RH  089%=      5-min Rain = 0
KHA3 261033Z 14011KT 22/20 A2995 RMK A01 T02150197  RH  089%=      5-min Rain = 0
KHA3 261034Z 15011KT 22/20 A2995 RMK A01 T02160197  RH  089%=      5-min Rain = 0
KHA3 261035Z 14010KT 22/20 A2995 RMK A01 T02160197  RH  089%=      5-min Rain = 0
KHA3 261036Z 14011KT 22/20 A2995 RMK A01 T02150197  RH  090%=      5-min Rain = 0
KHA3 261037Z 14008KT 22/20 A2995 RMK A01 T02150197  RH  090%=      5-min Rain = 0
KHA3 261038Z 14010KT 22/20 A2995 RMK A01 T02150197  RH  090%=      5-min Rain = 0
KHA3 261039Z 14010KT 22/20 A2995 RMK A01 T02150197  RH  090%=      5-min Rain = 0
KHA3 261040Z 15011KT 22/20 A2995 RMK A01 T02150197  RH  090%=      5-min Rain = 0
KHA3 261041Z 14009KT 22/20 A2995 RMK A01 T02150197  RH  090%=      5-min Rain = 0
KHA3 261042Z 14008KT 22/20 A2995 RMK A01 T02150197  RH  090%=      5-min Rain = 0
KHA3 261043Z 14012KT 21/20 A2995 RMK A01 T02140197  RH  090%=      5-min Rain = 0
KHA3 261044Z 14012KT 21/20 A2995 RMK A01 T02140197  RH  090%=      5-min Rain = 0
KHA3 261045Z 14009KT 22/20 A2995 RMK A01 T02150197  RH  090%=      5-min Rain = 0
KHA3 261046Z 14011KT 22/20 A2995 RMK A01 T02150197  RH  090%=      5-min Rain = 0
KHA3 261047Z 14011KT 21/20 A2995 RMK A01 T02140197  RH  090%=      5-min Rain = 0
KHA3 261048Z 14010KT 21/20 A2995 RMK A01 T02140197  RH  090%=      5-min Rain = 0
KHA3 261049Z 14010KT 21/20 A2995 RMK A01 T02140197  RH  090%=      5-min Rain = 0
KHA3 261050Z 14009KT 21/20 A2995 RMK A01 T02140197  RH  090%=      5-min Rain = 0
KHA3 261051Z 14010KT 21/20 A2995 RMK A01 T02140197  RH  090%=      5-min Rain = 0
KHA3 261052Z 14013KT 21/20 A2995 RMK A01 T02140197  RH  090%=      5-min Rain = 0
KHA3 261053Z 14010KT 21/20 A2995 RMK A01 T02140197  RH  090%=      5-min Rain = 0
KHA3 261054Z 14010KT 21/20 A2995 RMK A01 T02140197  RH  090%=      5-min Rain = 0
KHA3 261055Z 14010KT 21/20 A2996 RMK A01 T02140197  RH  090%=      5-min Rain = 0
KHA3 261056Z 14009KT 21/20 A2996 RMK A01 T02140197  RH  090%=      5-min Rain = 0
KHA3 261057Z 14009KT 21/20 A2996 RMK A01 T02140197  RH  090%=      5-min Rain = 0
KHA3 261058Z 14010KT 21/20 A2996 RMK A01 T02130197  RH  090%=      5-min Rain = 0
KHA3 261059Z 14011KT 21/20 A2996 RMK A01 T02130197  RH  091%=      5-min Rain = 0
KHA3 261100Z 14009KT 21/20 A2996 RMK A01 T02130197  RH  091%=      5-min Rain = 0
KHA3 261101Z 14011KT 21/20 A2996 RMK A01 T02130197  RH  091%=      5-min Rain = 0
KHA3 261102Z 15010KT 21/20 A2996 RMK A01 T02130197  RH  091%=      5-min Rain = 0
KHA3 261103Z 15010KT 21/20 A2996 RMK A01 T02130197  RH  091%=      5-min Rain = 0
KHA3 261104Z 15009KT 21/20 A2996 RMK A01 T02120197  RH  091%=      5-min Rain = 0
KHA3 261105Z 14011KT 21/20 A2996 RMK A01 T02120197  RH  091%=      5-min Rain = 0
KHA3 261106Z 14010KT 21/20 A2996 RMK A01 T02120197  RH  091%=      5-min Rain = 0
KHA3 261107Z 14009KT 21/20 A2996 RMK A01 T02120197  RH  091%=      5-min Rain = 0
KHA3 261108Z 14009KT 21/20 A2996 RMK A01 T02120197  RH  091%=      5-min Rain = 0
KHA3 261109Z 14010KT 21/20 A2997 RMK A01 T02120197  RH  091%=      5-min Rain = 0
KHA3 261110Z 14010KT 21/20 A2997 RMK A01 T02120197  RH  091%=      5-min Rain = 0
KHA3 261111Z 14010KT 21/20 A2997 RMK A01 T02120197  RH  091%=      5-min Rain = 0
KHA3 261112Z 14010KT 21/20 A2997 RMK A01 T02120197  RH  091%=      5-min Rain = 0
KHA3 261113Z 14010KT 21/20 A2997 RMK A01 T02120197  RH  091%=      5-min Rain = 0
KHA3 261114Z 13009KT 21/20 A2997 RMK A01 T02120197  RH  091%=      5-min Rain = 0
KHA3 261115Z 14008KT 21/20 A2997 RMK A01 T02120197  RH  091%=      5-min Rain = 0
KHA3 261116Z 14013KT 21/20 A2997 RMK A01 T02120197  RH  091%=      5-min Rain = 0
KHA3 261117Z 14011KT 21/20 A2997 RMK A01 T02120197  RH  091%=      5-min Rain = 0
KHA3 261118Z 14011KT 21/20 A2997 RMK A01 T02120197  RH  091%=      5-min Rain = 0
KHA3 261119Z 14012KT 21/20 A2997 RMK A01 T02120197  RH  091%=      5-min Rain = 0
KHA3 261120Z 14009KT 21/20 A2997 RMK A01 T02120197  RH  091%=      5-min Rain = 0
KHA3 261121Z 14012KT 21/20 A2997 RMK A01 T02120197  RH  091%=      5-min Rain = 0
KHA3 261122Z 14011KT 21/20 A2997 RMK A01 T02120197  RH  091%=      5-min Rain = 0
KHA3 261123Z 14011KT 21/20 A2997 RMK A01 T02120197  RH  091%=      5-min Rain = 0
KHA3 261124Z 14012KT 21/20 A2997 RMK A01 T02120197  RH  091%=      5-min Rain = 0
KHA3 261125Z 14011KT 21/20 A2997 RMK A01 T02120197  RH  091%=      5-min Rain = 0
KHA3 261126Z 14011KT 21/20 A2997 RMK A01 T02110196  RH  091%=      5-min Rain = 0
KHA3 261127Z 14010KT 21/20 A2997 RMK A01 T02120197  RH  091%=      5-min Rain = 0
KHA3 261128Z 14010KT 21/20 A2997 RMK A01 T02110197  RH  091%=      5-min Rain = 0
KHA3 261129Z 14010KT 21/20 A2997 RMK A01 T02110197  RH  091%=      5-min Rain = 0
KHA3 261130Z 14012KT 21/20 A2997 RMK A01 T02110197  RH  092%=      5-min Rain = 0
KHA3 261131Z 15011KT 21/20 A2997 RMK A01 T02110196  RH  092%=      5-min Rain = 0
KHA3 261132Z 14011KT 21/20 A2997 RMK A01 T02110197  RH  092%=      5-min Rain = 0
KHA3 261133Z 14011KT 21/20 A2997 RMK A01 T02110197  RH  092%=      5-min Rain = 0
KHA3 261134Z 14010KT 21/20 A2997 RMK A01 T02110197  RH  092%=      5-min Rain = 0
KHA3 261135Z 14009KT 21/20 A2997 RMK A01 T02110197  RH  092%=      5-min Rain = 0
KHA3 261136Z 14011KT 21/20 A2997 RMK A01 T02100196  RH  092%=      5-min Rain = 0
KHA3 261137Z 14010KT 21/20 A2997 RMK A01 T02100196  RH  092%=      5-min Rain = 0
KHA3 261138Z 14011KT 21/20 A2997 RMK A01 T02100197  RH  092%=      5-min Rain = 0
KHA3 261139Z 14010KT 21/20 A2997 RMK A01 T02110197  RH  092%=      5-min Rain = 0
KHA3 261140Z 13010KT 21/20 A2997 RMK A01 T02110196  RH  092%=      5-min Rain = 0
KHA3 261141Z 14011KT 21/20 A2997 RMK A01 T02110196  RH  091%=      5-min Rain = 0
KHA3 261142Z 14011KT 21/20 A2997 RMK A01 T02110196  RH  091%=      5-min Rain = 0
KHA3 261143Z 14011KT 21/20 A2997 RMK A01 T02100196  RH  091%=      5-min Rain = 0
KHA3 261144Z 14012KT 21/20 A2997 RMK A01 T02110196  RH  091%=      5-min Rain = 0
KHA3 261145Z 14010KT 21/20 A2997 RMK A01 T02110196  RH  092%=      5-min Rain = 0
KHA3 261146Z 13011KT 21/20 A2997 RMK A01 T02110197  RH  092%=      5-min Rain = 0
KHA3 261147Z 14011KT 21/20 A2998 RMK A01 T02110197  RH  092%=      5-min Rain = 0
KHA3 261148Z 14010KT 21/20 A2998 RMK A01 T02110197  RH  092%=      5-min Rain = 0
KHA3 261149Z 14008KT 21/20 A2998 RMK A01 T02100196  RH  092%=      5-min Rain = 0
KHA3 261150Z 14009KT 21/20 A2998 RMK A01 T02100196  RH  092%=      5-min Rain = 0
KHA3 261151Z 14010KT 21/20 A2998 RMK A01 T02100196  RH  092%=      5-min Rain = 0
KHA3 261152Z 14009KT 21/20 A2998 RMK A01 T02100196  RH  092%=      5-min Rain = 0
KHA3 261153Z 14011KT 21/20 A2998 RMK A01 T02100196  RH  092%=      5-min Rain = 0
KHA3 261154Z 14012KT 21/20 A2998 RMK A01 T02100196  RH  092%=      5-min Rain = 0
KHA3 261155Z 14010KT 21/20 A2998 RMK A01 T02100197  RH  092%=      5-min Rain = 0
KHA3 261156Z 13010KT 21/20 A2998 RMK A01 T02100197  RH  092%=      5-min Rain = 0
KHA3 261157Z 14011KT 21/20 A2998 RMK A01 T02100197  RH  092%=      5-min Rain = 0
KHA3 261158Z 14009KT 21/20 A2998 RMK A01 T02100197  RH  092%=      5-min Rain = 0
KHA3 261159Z 14009KT 21/20 A2998 RMK A01 T02100196  RH  092%=      5-min Rain = 0
KHA3 261200Z 14010KT 21/20 A2998 RMK A01 T02100197  RH  092%=      5-min Rain = 0
KHA3 261201Z 14010KT 21/20 A2998 RMK A01 T02100197  RH  092%=      5-min Rain = 0
KHA3 261202Z 14010KT 21/20 A2998 RMK A01 T02100197  RH  092%=      5-min Rain = 0
KHA3 261203Z 14010KT 21/20 A2998 RMK A01 T02100197  RH  092%=      5-min Rain = 0
KHA3 261204Z 13010KT 21/20 A2998 RMK A01 T02100197  RH  092%=      5-min Rain = 0
KHA3 261205Z 14012KT 21/20 A2998 RMK A01 T02100197  RH  092%=      5-min Rain = 0
KHA3 261206Z 13011KT 21/20 A2998 RMK A01 T02100196  RH  092%=      5-min Rain = 0
KHA3 261207Z 14012KT 21/20 A2998 RMK A01 T02110197  RH  092%=      5-min Rain = 0
KHA3 261208Z 14011KT 21/20 A2998 RMK A01 T02110196  RH  092%=      5-min Rain = 0
KHA3 261209Z 14011KT 21/20 A2998 RMK A01 T02110196  RH  091%=      5-min Rain = 0
KHA3 261210Z 14012KT 21/20 A2998 RMK A01 T02110196  RH  091%=      5-min Rain = 0
KHA3 261211Z 14012KT 21/20 A2998 RMK A01 T02110196  RH  091%=      5-min Rain = 0
KHA3 261212Z 14010G15KT 21/20 A2998 RMK A01 T02110196  RH  091%=      5-min Rain = 0
KHA3 261213Z 14011KT 21/20 A2998 RMK A01 T02110196  RH  091%=      5-min Rain = 0
KHA3 261214Z 14013KT 21/20 A2998 RMK A01 T02110196  RH  091%=      5-min Rain = 0
KHA3 261215Z 14012KT 21/20 A2998 RMK A01 T02110196  RH  091%=      5-min Rain = 0
KHA3 261216Z 14012KT 21/20 A2999 RMK A01 T02120197  RH  091%=      5-min Rain = 0
KHA3 261217Z 14011KT 21/20 A2999 RMK A01 T02120197  RH  091%=      5-min Rain = 0
KHA3 261218Z 14010KT 21/20 A2999 RMK A01 T02120197  RH  091%=      5-min Rain = 0
KHA3 261219Z 14011KT 21/20 A2999 RMK A01 T02120197  RH  091%=      5-min Rain = 0
KHA3 261220Z 14011KT 21/20 A2999 RMK A01 T02120196  RH  091%=      5-min Rain = 0
KHA3 261221Z 14014KT 21/20 A2999 RMK A01 T02130197  RH  091%=      5-min Rain = 0
KHA3 261222Z 14015KT 21/20 A2999 RMK A01 T02130196  RH  090%=      5-min Rain = 0
KHA3 261223Z 14014KT 21/20 A2999 RMK A01 T02130196  RH  090%=      5-min Rain = 0
KHA3 261224Z 14011KT 21/20 A2999 RMK A01 T02130196  RH  090%=      5-min Rain = 0
KHA3 261225Z 14010KT 21/20 A2999 RMK A01 T02130196  RH  090%=      5-min Rain = 0
KHA3 261226Z 14010KT 21/20 A2999 RMK A01 T02130197  RH  090%=      5-min Rain = 0
KHA3 261227Z 14011KT 21/20 A2999 RMK A01 T02130197  RH  090%=      5-min Rain = 0
KHA3 261228Z 14010KT 21/20 A2999 RMK A01 T02130197  RH  090%=      5-min Rain = 0
KHA3 261229Z 14009KT 21/20 A2999 RMK A01 T02130196  RH  090%=      5-min Rain = 0
KHA3 261230Z 14012KT 21/20 A2999 RMK A01 T02130196  RH  090%=      5-min Rain = 0
KHA3 261231Z 14011KT 21/20 A30 RMK A01 T02130196  RH  090%=      5-min Rain = 0
KHA3 261232Z 14012KT 21/20 A30 RMK A01 T02130196  RH  090%=      5-min Rain = 0
KHA3 261233Z 14011KT 21/20 A30 RMK A01 T02130196  RH  090%=      5-min Rain = 0
KHA3 261234Z 15010KT 21/20 A30 RMK A01 T02130196  RH  090%=      5-min Rain = 0
KHA3 261235Z 14012KT 21/20 A30 RMK A01 T02130196  RH  090%=      5-min Rain = 0
KHA3 261236Z 14013KT 21/20 A30 RMK A01 T02140196  RH  090%=      5-min Rain = 0
KHA3 261237Z 14009KT 21/20 A30 RMK A01 T02140196  RH  090%=      5-min Rain = 0
KHA3 261238Z 14010KT 21/20 A30 RMK A01 T02140197  RH  090%=      5-min Rain = 0
KHA3 261239Z 14012KT 21/20 A30 RMK A01 T02140197  RH  090%=      5-min Rain = 0
KHA3 261240Z 14010KT 22/20 A30 RMK A01 T02150197  RH  089%=      5-min Rain = 0
KHA3 261241Z 15010KT 22/20 A30 RMK A01 T02150197  RH  090%=      5-min Rain = 0
KHA3 261242Z 14010KT 22/20 A30 RMK A01 T02150197  RH  090%=      5-min Rain = 0
KHA3 261243Z 14011KT 22/20 A30 RMK A01 T02150197  RH  089%=      5-min Rain = 0
KHA3 261244Z 14012KT 22/20 A30 RMK A01 T02150197  RH  089%=      5-min Rain = 0
KHA3 261245Z 14012KT 22/20 A30 RMK A01 T02150196  RH  089%=      5-min Rain = 0
KHA3 261246Z 14013KT 22/20 A30 RMK A01 T02150196  RH  089%=      5-min Rain = 0
KHA3 261247Z 14013KT 22/20 A30 RMK A01 T02150197  RH  089%=      5-min Rain = 0
KHA3 261248Z 15010KT 22/20 A30 RMK A01 T02160197  RH  089%=      5-min Rain = 0
KHA3 261249Z 14014KT 22/20 A30 RMK A01 T02160198  RH  089%=      5-min Rain = 0
KHA3 261250Z 14014KT 22/20 A30 RMK A01 T02160197  RH  089%=      5-min Rain = 0
KHA3 261251Z 14011KT 22/20 A30 RMK A01 T02160197  RH  089%=      5-min Rain = 0
KHA3 261252Z 14011KT 22/20 A30 RMK A01 T02160196  RH  088%=      5-min Rain = 0
KHA3 261253Z 15012KT 22/20 A3001 RMK A01 T02160197  RH  088%=      5-min Rain = 0
KHA3 261254Z 14010KT 22/20 A3001 RMK A01 T02170197  RH  088%=      5-min Rain = 0
KHA3 261255Z 14011KT 22/20 A3001 RMK A01 T02170198  RH  089%=      5-min Rain = 0
KHA3 261256Z 15009KT 22/20 A3001 RMK A01 T02180198  RH  088%=      5-min Rain = 0
KHA3 261257Z 15012KT 22/20 A3001 RMK A01 T02180198  RH  088%=      5-min Rain = 0
KHA3 261258Z 15012KT 22/20 A3001 RMK A01 T02180198  RH  088%=      5-min Rain = 0
KHA3 261259Z 15014KT 22/20 A3001 RMK A01 T02190197  RH  087%=      5-min Rain = 0
KHA3 261300Z 15013KT 22/20 A3001 RMK A01 T02190197  RH  087%=      5-min Rain = 0
KHA3 261301Z 15011KT 22/20 A3001 RMK A01 T02190197  RH  088%=      5-min Rain = 0
KHA3 261302Z 16012KT 22/20 A3001 RMK A01 T02180199  RH  089%=      5-min Rain = 0
KHA3 261303Z 16015KT 22/20 A3001 RMK A01 T02180197  RH  088%=      5-min Rain = 0
KHA3 261304Z 16012KT 22/20 A3001 RMK A01 T02180197  RH  088%=      5-min Rain = 0
KHA3 261305Z 16013KT 22/20 A3001 RMK A01 T02170196  RH  088%=      5-min Rain = 0
KHA3 261306Z 15012KT 22/20 A3001 RMK A01 T02170196  RH  088%=      5-min Rain = 0
KHA3 261307Z 16012KT 22/20 A3001 RMK A01 T02160197  RH  089%=      5-min Rain = 0
KHA3 261308Z 15011KT 22/20 A3001 RMK A01 T02160197  RH  089%=      5-min Rain = 0
KHA3 261309Z 14011KT 22/20 A3001 RMK A01 T02160197  RH  089%=      5-min Rain = 0
KHA3 261310Z 15013KT 22/20 A3001 RMK A01 T02160197  RH  089%=      5-min Rain = 0
KHA3 261311Z 15009KT 22/20 A3002 RMK A01 T02170197  RH  089%=      5-min Rain = 0
KHA3 261312Z 15014KT 22/20 A3002 RMK A01 T02170196  RH  088%=      5-min Rain = 0
KHA3 261313Z 15012KT 22/20 A3002 RMK A01 T02170196  RH  088%=      5-min Rain = 0
KHA3 261314Z 16012KT 22/20 A3002 RMK A01 T02180197  RH  088%=      5-min Rain = 0
KHA3 261315Z 15013KT 22/20 A3002 RMK A01 T02180197  RH  088%=      5-min Rain = 0
KHA3 261316Z 15011KT 22/20 A3002 RMK A01 T02180197  RH  088%=      5-min Rain = 0
KHA3 261317Z 16014KT 22/20 A3002 RMK A01 T02180196  RH  087%=      5-min Rain = 0
KHA3 261318Z 16012KT 22/20 A3002 RMK A01 T02180196  RH  087%=      5-min Rain = 0
KHA3 261319Z 16016KT 22/20 A3002 RMK A01 T02180196  RH  087%=      5-min Rain = 0
KHA3 261320Z 17014KT 22/20 A3002 RMK A01 T02180196  RH  087%=      5-min Rain = 0
KHA3 261321Z 16011KT 22/20 A3002 RMK A01 T02190196  RH  087%=      5-min Rain = 0
KHA3 261322Z 16011KT 22/20 A3002 RMK A01 T02190197  RH  088%=      5-min Rain = 0
KHA3 261323Z 16010KT 22/20 A3002 RMK A01 T02190198  RH  088%=      5-min Rain = 0
KHA3 261324Z 15014KT 22/20 A3002 RMK A01 T02190197  RH  088%=      5-min Rain = 0
KHA3 261325Z 16013KT 22/20 A3002 RMK A01 T02180196  RH  087%=      5-min Rain = 0
KHA3 261326Z 15013KT 22/20 A3002 RMK A01 T02180196  RH  087%=      5-min Rain = 0
KHA3 261327Z 15012KT 22/20 A3002 RMK A01 T02180196  RH  087%=      5-min Rain = 0
KHA3 261328Z 16013KT 22/20 A3002 RMK A01 T02180196  RH  087%=      5-min Rain = 0
KHA3 261329Z 16012KT 22/20 A3002 RMK A01 T02180196  RH  087%=      5-min Rain = 0
KHA3 261330Z 16011KT 22/20 A3002 RMK A01 T02180196  RH  088%=      5-min Rain = 0
KHA3 261331Z 15012KT 22/20 A3002 RMK A01 T02170196  RH  088%=      5-min Rain = 0
KHA3 261332Z 16012KT 22/20 A3002 RMK A01 T02180195  RH  087%=      5-min Rain = 0
KHA3 261333Z 16012KT 22/20 A3002 RMK A01 T02180195  RH  087%=      5-min Rain = 0
KHA3 261334Z 16014KT 22/20 A3002 RMK A01 T02180196  RH  088%=      5-min Rain = 0
KHA3 261335Z 16014KT 22/20 A3002 RMK A01 T02180195  RH  087%=      5-min Rain = 0
KHA3 261336Z 16013KT 22/20 A3002 RMK A01 T02180195  RH  087%=      5-min Rain = 0
KHA3 261337Z 16013KT 22/20 A3002 RMK A01 T02180195  RH  087%=      5-min Rain = 0
KHA3 261338Z 17012KT 22/20 A3002 RMK A01 T02180195  RH  087%=      5-min Rain = 0
KHA3 261339Z 17013KT 22/20 A3002 RMK A01 T02170195  RH  087%=      5-min Rain = 0
KHA3 261340Z 16011KT 22/20 A3002 RMK A01 T02170196  RH  087%=      5-min Rain = 0
KHA3 261341Z 16013KT 22/20 A3002 RMK A01 T02180196  RH  087%=      5-min Rain = 0
KHA3 261342Z 16012KT 22/20 A3002 RMK A01 T02180195  RH  087%=      5-min Rain = 0
KHA3 261343Z 16013KT 22/20 A3002 RMK A01 T02180195  RH  087%=      5-min Rain = 0
KHA3 261344Z 16011KT 22/20 A3002 RMK A01 T02180195  RH  087%=      5-min Rain = 0
KHA3 261345Z 16010KT 22/20 A3002 RMK A01 T02170195  RH  087%=      5-min Rain = 0
KHA3 261346Z 17013KT 22/20 A3002 RMK A01 T02180196  RH  087%=      5-min Rain = 0
KHA3 261347Z 17011KT 22/20 A3002 RMK A01 T02180196  RH  087%=      5-min Rain = 0
KHA3 261348Z 16010KT 22/20 A3002 RMK A01 T02180197  RH  088%=      5-min Rain = 0
KHA3 261349Z 16010KT 22/20 A3002 RMK A01 T02180196  RH  087%=      5-min Rain = 0
KHA3 261350Z 16012KT 22/20 A3002 RMK A01 T02180195  RH  087%=      5-min Rain = 0
KHA3 261351Z 16013KT 22/20 A3002 RMK A01 T02190195  RH  086%=      5-min Rain = 0
KHA3 261352Z 16011KT 22/20 A3002 RMK A01 T02190195  RH  086%=      5-min Rain = 0
KHA3 261353Z 17010KT 22/20 A3002 RMK A01 T02190195  RH  086%=      5-min Rain = 0
KHA3 261354Z 16009KT 22/20 A3002 RMK A01 T02190196  RH  087%=      5-min Rain = 0
KHA3 261355Z 16011KT 22/20 A3002 RMK A01 T02190195  RH  086%=      5-min Rain = 0
KHA3 261356Z 16013KT 22/19 A3002 RMK A01 T02190194  RH  086%=      5-min Rain = 0
KHA3 261357Z 15012KT 22/19 A3002 RMK A01 T02190194  RH  086%=      5-min Rain = 0
KHA3 261358Z 16011KT 22/19 A3002 RMK A01 T02190194  RH  086%=      5-min Rain = 0
KHA3 261359Z 16012KT 22/20 A3002 RMK A01 T02190195  RH  086%=      5-min Rain = 0
KHA3 261400Z 16011KT 22/19 A3002 RMK A01 T02180194  RH  086%=      5-min Rain = 0
KHA3 261401Z 15011KT 22/19 A3002 RMK A01 T02180194  RH  086%=      5-min Rain = 0
KHA3 261402Z 16011KT 22/20 A3002 RMK A01 T02190195  RH  086%=      5-min Rain = 0
KHA3 261403Z 15011KT 22/19 A3002 RMK A01 T02180194  RH  086%=      5-min Rain = 0
KHA3 261404Z 15012KT 22/19 A3002 RMK A01 T02190194  RH  086%=      5-min Rain = 0
KHA3 261405Z 15011KT 22/19 A3002 RMK A01 T02190194  RH  086%=      5-min Rain = 0
KHA3 261406Z 16012KT 22/19 A3002 RMK A01 T02190194  RH  086%=      5-min Rain = 0
KHA3 261407Z 16012KT 22/19 A3002 RMK A01 T02190193  RH  085%=      5-min Rain = 0
KHA3 261408Z 16010KT 22/19 A3002 RMK A01 T02200194  RH  085%=      5-min Rain = 0
KHA3 261409Z 15011KT 22/20 A3002 RMK A01 T02200195  RH  085%=      5-min Rain = 0
KHA3 261410Z 16011KT 22/20 A3002 RMK A01 T02210195  RH  085%=      5-min Rain = 0
KHA3 261411Z 15011KT 22/20 A3002 RMK A01 T02220195  RH  085%=      5-min Rain = 0
KHA3 261412Z 16012KT 22/19 A3002 RMK A01 T02220194  RH  084%=      5-min Rain = 0
KHA3 261413Z 16009KT 22/20 A3002 RMK A01 T02220195  RH  084%=      5-min Rain = 0
KHA3 261414Z 15011KT 22/20 A3002 RMK A01 T02230196  RH  085%=      5-min Rain = 0
KHA3 261415Z 16010KT 22/20 A3002 RMK A01 T02230195  RH  084%=      5-min Rain = 0
KHA3 261416Z 16012KT 22/20 A3002 RMK A01 T02240196  RH  084%=      5-min Rain = 0
KHA3 261417Z 16014KT 22/19 A3002 RMK A01 T02240193  RH  083%=      5-min Rain = 0
KHA3 261418Z 16012KT 22/19 A3002 RMK A01 T02240194  RH  083%=      5-min Rain = 0
KHA3 261419Z 16013KT 22/20 A3002 RMK A01 T02240195  RH  084%=      5-min Rain = 0
KHA3 261420Z 16014KT 22/19 A3002 RMK A01 T02240193  RH  083%=      5-min Rain = 0
KHA3 261421Z 16013KT 22/19 A3002 RMK A01 T02240194  RH  083%=      5-min Rain = 0
KHA3 261422Z 15015KT 22/19 A3002 RMK A01 T02240194  RH  083%=      5-min Rain = 0
KHA3 261423Z 16015KT 22/19 A3002 RMK A01 T02240192  RH  082%=      5-min Rain = 0
KHA3 261424Z 16015KT 22/19 A3002 RMK A01 T02240192  RH  082%=      5-min Rain = 0
KHA3 261425Z 16015KT 22/19 A3002 RMK A01 T02240193  RH  082%=      5-min Rain = 0
KHA3 261426Z 16013KT 23/19 A3002 RMK A01 T02250193  RH  082%=      5-min Rain = 0
KHA3 261427Z 15010KT 23/19 A3002 RMK A01 T02250193  RH  082%=      5-min Rain = 0
KHA3 261428Z 16012KT 23/19 A3002 RMK A01 T02250194  RH  082%=      5-min Rain = 0
KHA3 261429Z 16014KT 23/19 A3002 RMK A01 T02250193  RH  082%=      5-min Rain = 0
KHA3 261430Z 16013KT 23/19 A3001 RMK A01 T02250192  RH  081%=      5-min Rain = 0
KHA3 261431Z 16013KT 23/19 A3002 RMK A01 T02250193  RH  082%=      5-min Rain = 0
KHA3 261432Z 17015KT 23/19 A3002 RMK A01 T02250192  RH  082%=      5-min Rain = 0
KHA3 261433Z 16015KT 23/19 A3002 RMK A01 T02250191  RH  081%=      5-min Rain = 0
KHA3 261434Z 16013KT 23/19 A3002 RMK A01 T02250191  RH  081%=      5-min Rain = 0
KHA3 261435Z 16013KT 23/19 A3002 RMK A01 T02250192  RH  082%=      5-min Rain = 0
KHA3 261436Z 16014KT 23/19 A3002 RMK A01 T02260192  RH  081%=      5-min Rain = 0
KHA3 261437Z 16013KT 23/19 A3002 RMK A01 T02260192  RH  081%=      5-min Rain = 0
KHA3 261438Z 16012KT 23/19 A3002 RMK A01 T02270193  RH  081%=      5-min Rain = 0
KHA3 261439Z 16012KT 23/19 A3002 RMK A01 T02270194  RH  081%=      5-min Rain = 0
KHA3 261440Z 16014KT 23/19 A3002 RMK A01 T02270192  RH  080%=      5-min Rain = 0
KHA3 261441Z 16012KT 23/19 A3002 RMK A01 T02280191  RH  080%=      5-min Rain = 0
KHA3 261442Z 16010KT 23/19 A3002 RMK A01 T02280193  RH  081%=      5-min Rain = 0
KHA3 261443Z 16014KT 23/19 A3002 RMK A01 T02280193  RH  080%=      5-min Rain = 0
KHA3 261444Z 16014KT 23/19 A3002 RMK A01 T02290192  RH  080%=      5-min Rain = 0
KHA3 261445Z 16012KT 23/19 A3002 RMK A01 T02290193  RH  080%=      5-min Rain = 0
KHA3 261446Z 16013KT 23/19 A3002 RMK A01 T02290193  RH  080%=      5-min Rain = 0
KHA3 261447Z 16013KT 23/19 A3002 RMK A01 T02290194  RH  081%=      5-min Rain = 0
KHA3 261448Z 16014KT 23/19 A3002 RMK A01 T02280192  RH  080%=      5-min Rain = 0
KHA3 261449Z 15014KT 23/19 A3002 RMK A01 T02290192  RH  080%=      5-min Rain = 0
KHA3 261450Z 16015KT 23/19 A3002 RMK A01 T02290192  RH  080%=      5-min Rain = 0
KHA3 261451Z 16014KT 23/19 A3002 RMK A01 T02280190  RH  079%=      5-min Rain = 0
KHA3 261452Z 15016KT 23/19 A3002 RMK A01 T02280191  RH  079%=      5-min Rain = 0
KHA3 261453Z 16016KT 23/19 A3002 RMK A01 T02280190  RH  079%=      5-min Rain = 0
KHA3 261454Z 16015G20KT 23/19 A3002 RMK A01 T02280191  RH  080%=      5-min Rain = 0
KHA3 261455Z 16015KT 23/19 A3002 RMK A01 T02280190  RH  079%=      5-min Rain = 0
KHA3 261456Z 16014KT 23/19 A3002 RMK A01 T02280191  RH  079%=      5-min Rain = 0
KHA3 261457Z 16015KT 23/19 A3002 RMK A01 T02290192  RH  080%=      5-min Rain = 0
KHA3 261458Z 16013KT 23/19 A3002 RMK A01 T02290190  RH  079%=      5-min Rain = 0
KHA3 261459Z 16016KT 23/19 A3002 RMK A01 T02290191  RH  079%=      5-min Rain = 0
KHA3 261500Z 15013KT 23/19 A3002 RMK A01 T02290191  RH  079%=      5-min Rain = 0
KHA3 261501Z 15011KT 23/19 A3002 RMK A01 T02290192  RH  080%=      5-min Rain = 0
KHA3 261502Z 15009KT 23/19 A3002 RMK A01 T02290194  RH  080%=      5-min Rain = 0
KHA3 261503Z 15015G20KT 23/19 A3002 RMK A01 T02300192  RH  079%=      5-min Rain = 0
KHA3 261504Z 16015KT 23/19 A3002 RMK A01 T02300191  RH  079%=      5-min Rain = 0
KHA3 261505Z 16014G19KT 23/19 A3002 RMK A01 T02300192  RH  079%=      5-min Rain = 0
KHA3 261506Z 16017KT 23/19 A3002 RMK A01 T02300190  RH  078%=      5-min Rain = 0
KHA3 261507Z 16016KT 23/19 A3002 RMK A01 T02300190  RH  078%=      5-min Rain = 0
KHA3 261508Z 16016KT 23/19 A3002 RMK A01 T02300190  RH  078%=      5-min Rain = 0
KHA3 261509Z 16016KT 23/19 A3002 RMK A01 T02310191  RH  078%=      5-min Rain = 0
KHA3 261510Z 16015KT 23/19 A3002 RMK A01 T02300191  RH  079%=      5-min Rain = 0
KHA3 261511Z 15014G19KT 23/19 A3002 RMK A01 T02310191  RH  079%=      5-min Rain = 0
KHA3 261512Z 16018KT 23/19 A3002 RMK A01 T02310191  RH  078%=      5-min Rain = 0
KHA3 261513Z 15014KT 23/19 A3002 RMK A01 T02310190  RH  078%=      5-min Rain = 0
KHA3 261514Z 16012KT 23/19 A3002 RMK A01 T02310190  RH  078%=      5-min Rain = 0
KHA3 261515Z 16012KT 23/19 A3002 RMK A01 T02310191  RH  078%=      5-min Rain = 0
KHA3 261516Z 15011KT 23/19 A3002 RMK A01 T02310193  RH  079%=      5-min Rain = 0
KHA3 261517Z 15014KT 23/19 A3002 RMK A01 T02330191  RH  077%=      5-min Rain = 0
KHA3 261518Z 15014G19KT 23/19 A3002 RMK A01 T02330192  RH  078%=      5-min Rain = 0
KHA3 261519Z 15015KT 23/19 A3002 RMK A01 T02320192  RH  078%=      5-min Rain = 0
KHA3 261520Z 15015G20KT 23/19 A3002 RMK A01 T02320191  RH  077%=      5-min Rain = 0
KHA3 261521Z 16016KT 23/19 A3002 RMK A01 T02320190  RH  077%=      5-min Rain = 0
KHA3 261522Z 16014KT 23/19 A3002 RMK A01 T02320190  RH  077%=      5-min Rain = 0
KHA3 261523Z 16014KT 23/19 A3002 RMK A01 T02320190  RH  077%=      5-min Rain = 0
KHA3 261524Z 16014KT 23/19 A3002 RMK A01 T02320190  RH  077%=      5-min Rain = 0
KHA3 261525Z 15012KT 23/19 A3002 RMK A01 T02320191  RH  078%=      5-min Rain = 0
KHA3 261526Z 16012KT 23/19 A3002 RMK A01 T02330192  RH  078%=      5-min Rain = 0
KHA3 261527Z 16011KT 24/19 A3002 RMK A01 T02350194  RH  078%=      5-min Rain = 0
KHA3 261528Z 16016KT 24/19 A3002 RMK A01 T02360192  RH  077%=      5-min Rain = 0
KHA3 261529Z 17017KT 24/19 A3003 RMK A01 T02360191  RH  076%=      5-min Rain = 0
KHA3 261530Z 16013KT 24/19 A3003 RMK A01 T02350192  RH  077%=      5-min Rain = 0
KHA3 261531Z 15015KT 24/19 A3003 RMK A01 T02350190  RH  076%=      5-min Rain = 0
KHA3 261532Z 15013KT 24/19 A3003 RMK A01 T02350191  RH  076%=      5-min Rain = 0
KHA3 261533Z 16013G18KT 24/19 A3003 RMK A01 T02350192  RH  077%=      5-min Rain = 0
KHA3 261534Z 16014KT 24/19 A3003 RMK A01 T02350191  RH  076%=      5-min Rain = 0
KHA3 261535Z 15015KT 24/19 A3003 RMK A01 T02360191  RH  076%=      5-min Rain = 0
KHA3 261536Z 16015KT 24/19 A3003 RMK A01 T02350190  RH  076%=      5-min Rain = 0
KHA3 261537Z 16014KT 24/19 A3003 RMK A01 T02350191  RH  076%=      5-min Rain = 0
KHA3 261538Z 16015KT 24/19 A3003 RMK A01 T02350190  RH  076%=      5-min Rain = 0
KHA3 261539Z 16012KT 24/19 A3003 RMK A01 T02350191  RH  076%=      5-min Rain = 0
KHA3 261540Z 16013KT 24/19 A3002 RMK A01 T02370192  RH  076%=      5-min Rain = 0
KHA3 261541Z 16017KT 24/19 A3002 RMK A01 T02370191  RH  075%=      5-min Rain = 0
KHA3 261542Z 16018KT 24/19 A3002 RMK A01 T02370188  RH  074%=      5-min Rain = 0
KHA3 261543Z 16017KT 24/19 A3002 RMK A01 T02370188  RH  074%=      5-min Rain = 0
KHA3 261544Z 16017KT 24/19 A3002 RMK A01 T02360189  RH  075%=      5-min Rain = 0
KHA3 261545Z 16013KT 24/19 A3002 RMK A01 T02360189  RH  075%=      5-min Rain = 0
KHA3 261546Z 16014KT 24/19 A3002 RMK A01 T02370190  RH  075%=      5-min Rain = 0
KHA3 261547Z 16015KT 24/19 A3002 RMK A01 T02370189  RH  074%=      5-min Rain = 0
KHA3 261548Z 16016KT 24/19 A3002 RMK A01 T02380189  RH  074%=      5-min Rain = 0
KHA3 261549Z 16015KT 24/19 A3002 RMK A01 T02390188  RH  073%=      5-min Rain = 0
KHA3 261550Z 15017KT 24/19 A3001 RMK A01 T02390188  RH  073%=      5-min Rain = 0
KHA3 261551Z 15014KT 24/19 A3002 RMK A01 T02390189  RH  073%=      5-min Rain = 0
KHA3 261552Z 16016KT 24/19 A3001 RMK A01 T02400187  RH  072%=      5-min Rain = 0
KHA3 261553Z 16015KT 24/19 A3001 RMK A01 T02400189  RH  073%=      5-min Rain = 0
KHA3 261554Z 16015G20KT 24/19 A3001 RMK A01 T02410190  RH  073%=      5-min Rain = 0
KHA3 261555Z 15015KT 24/19 A3001 RMK A01 T02410189  RH  073%=      5-min Rain = 0
KHA3 261556Z 15014KT 24/19 A3001 RMK A01 T02410189  RH  072%=      5-min Rain = 0
KHA3 261557Z 15015KT 24/19 A3001 RMK A01 T02420190  RH  073%=      5-min Rain = 0
KHA3 261558Z 16014KT 24/19 A3001 RMK A01 T02420189  RH  073%=      5-min Rain = 0
KHA3 261559Z 16015KT 24/19 A3001 RMK A01 T02410190  RH  073%=      5-min Rain = 0
KHA3 261600Z 16014KT 24/19 A3001 RMK A01 T02420190  RH  073%=      5-min Rain = 0
KHA3 261601Z 16014KT 24/19 A3001 RMK A01 T02420191  RH  073%=      5-min Rain = 0
KHA3 261602Z 15016KT 24/19 A3001 RMK A01 T02430190  RH  072%=      5-min Rain = 0
KHA3 261603Z 16016G21KT 24/19 A3001 RMK A01 T02440189  RH  072%=      5-min Rain = 0
KHA3 261604Z 16019KT 25/19 A3001 RMK A01 T02450188  RH  071%=      5-min Rain = 0
KHA3 261605Z 17016KT 24/19 A3001 RMK A01 T02440189  RH  071%=      5-min Rain = 0
KHA3 261606Z 16016G21KT 25/19 A3001 RMK A01 T02450190  RH  071%=      5-min Rain = 0
KHA3 261607Z 15016KT 25/19 A3001 RMK A01 T02460190  RH  071%=      5-min Rain = 0
KHA3 261608Z 16014KT 25/19 A3001 RMK A01 T02470190  RH  071%=      5-min Rain = 0
KHA3 261609Z 16013KT 25/19 A3001 RMK A01 T02470192  RH  072%=      5-min Rain = 0
KHA3 261610Z 15015KT 25/19 A3001 RMK A01 T02470192  RH  071%=      5-min Rain = 0
KHA3 261611Z 16015KT 25/19 A3001 RMK A01 T02470191  RH  071%=      5-min Rain = 0
KHA3 261612Z 17017KT 25/19 A3001 RMK A01 T02470190  RH  071%=      5-min Rain = 0
KHA3 261613Z 17018KT 25/19 A3001 RMK A01 T02450190  RH  071%=      5-min Rain = 0
KHA3 261614Z 17016KT 24/19 A3001 RMK A01 T02430189  RH  072%=      5-min Rain = 0
KHA3 261615Z 17015KT 24/19 A3001 RMK A01 T02420188  RH  072%=      5-min Rain = 0
KHA3 261616Z 17014KT 24/19 A3001 RMK A01 T02420189  RH  072%=      5-min Rain = 0
KHA3 261617Z 17015KT 24/19 A3001 RMK A01 T02420189  RH  072%=      5-min Rain = 0
KHA3 261618Z 17015G20KT 24/19 A3001 RMK A01 T02420189  RH  072%=      5-min Rain = 0
KHA3 261619Z 17015KT 24/19 A3001 RMK A01 T02430190  RH  073%=      5-min Rain = 0
KHA3 261620Z 18016KT 24/19 A3001 RMK A01 T02420188  RH  072%=      5-min Rain = 0
KHA3 261621Z 17015KT 24/19 A3001 RMK A01 T02420188  RH  072%=      5-min Rain = 0
KHA3 261622Z 17014KT 24/19 A3001 RMK A01 T02420189  RH  072%=      5-min Rain = 0
KHA3 261623Z 17013G19KT 24/19 A3001 RMK A01 T02430191  RH  073%=      5-min Rain = 0
KHA3 261624Z 16015G20KT 24/19 A3001 RMK A01 T02440191  RH  072%=      5-min Rain = 0
KHA3 261625Z 16016G21KT 24/19 A3001 RMK A01 T02440189  RH  072%=      5-min Rain = 0
KHA3 261626Z 17016KT 24/19 A3001 RMK A01 T02420188  RH  072%=      5-min Rain = 0
KHA3 261627Z 16013KT 24/19 A3001 RMK A01 T02420190  RH  073%=      5-min Rain = 0
KHA3 261628Z 17010KT 24/19 A3001 RMK A01 T02420193  RH  074%=      5-min Rain = 0
KHA3 261629Z 17013KT 24/19 A3001 RMK A01 T02440193  RH  073%=      5-min Rain = 0
KHA3 261630Z 16015KT 25/19 A3001 RMK A01 T02450192  RH  073%=      5-min Rain = 0
KHA3 261631Z 16016KT 25/19 A30 RMK A01 T02450190  RH  071%=      5-min Rain = 0
KHA3 261632Z 17016KT 25/19 A30 RMK A01 T02450189  RH  071%=      5-min Rain = 0
KHA3 261633Z 15012KT 24/19 A30 RMK A01 T02440191  RH  072%=      5-min Rain = 0
KHA3 261634Z 16015KT 24/19 A30 RMK A01 T02440192  RH  073%=      5-min Rain = 0
KHA3 261635Z 16016KT 25/19 A30 RMK A01 T02460190  RH  071%=      5-min Rain = 0
KHA3 261636Z 17016KT 25/19 A30 RMK A01 T02470189  RH  070%=      5-min Rain = 0
KHA3 261637Z 18017KT 25/19 A30 RMK A01 T02470191  RH  071%=      5-min Rain = 0
KHA3 261638Z 16014KT 25/19 A30 RMK A01 T02480192  RH  071%=      5-min Rain = 0
KHA3 261639Z 16013G18KT 25/19 A30 RMK A01 T02500193  RH  071%=      5-min Rain = 0
KHA3 261640Z 17012G17KT 25/19 A30 RMK A01 T02500194  RH  071%=      5-min Rain = 0
KHA3 261641Z 16012KT 25/19 A30 RMK A01 T02500194  RH  071%=      5-min Rain = 0
KHA3 261642Z 16019KT 25/19 A30 RMK A01 T02500191  RH  070%=      5-min Rain = 0
KHA3 261643Z 16018KT 25/19 A30 RMK A01 T02490190  RH  070%=      5-min Rain = 0
KHA3 261644Z 16017KT 25/19 A30 RMK A01 T02480190  RH  070%=      5-min Rain = 0
KHA3 261645Z 16015KT 25/19 A30 RMK A01 T02480189  RH  070%=      5-min Rain = 0
KHA3 261646Z 16011KT 25/19 A30 RMK A01 T02480192  RH  071%=      5-min Rain = 0
KHA3 261647Z 16013KT 25/19 A30 RMK A01 T02490194  RH  071%=      5-min Rain = 0
KHA3 261648Z 17015KT 25/19 A30 RMK A01 T02500191  RH  070%=      5-min Rain = 0
KHA3 261649Z 17017KT 25/19 A30 RMK A01 T02500192  RH  070%=      5-min Rain = 0
KHA3 261650Z 17015KT 25/19 A30 RMK A01 T02500189  RH  069%=      5-min Rain = 0
KHA3 261651Z 17015G21KT 25/19 A30 RMK A01 T02490191  RH  070%=      5-min Rain = 0
KHA3 261652Z 17018KT 25/19 A30 RMK A01 T02490189  RH  069%=      5-min Rain = 0
KHA3 261653Z 16017KT 25/19 A30 RMK A01 T02490188  RH  069%=      5-min Rain = 0
KHA3 261654Z 16017KT 25/19 A30 RMK A01 T02500190  RH  069%=      5-min Rain = 0
KHA3 261655Z 15016KT 25/19 A30 RMK A01 T02530191  RH  069%=      5-min Rain = 0
KHA3 261656Z 16014KT 25/19 A30 RMK A01 T02540190  RH  068%=      5-min Rain = 0
KHA3 261657Z 16012KT 25/19 A2999 RMK A01 T02540194  RH  069%=      5-min Rain = 0
KHA3 261658Z 18013KT 26/19 A2999 RMK A01 T02550193  RH  068%=      5-min Rain = 0
KHA3 261659Z 17014KT 26/19 A2999 RMK A01 T02550192  RH  068%=      5-min Rain = 0
KHA3 261700Z 15017KT 26/19 A2999 RMK A01 T02560193  RH  068%=      5-min Rain = 0
KHA3 261701Z 17015G21KT 26/19 A30 RMK A01 T02560193  RH  068%=      5-min Rain = 0
KHA3 261702Z 15017KT 26/19 A30 RMK A01 T02550192  RH  068%=      5-min Rain = 0
KHA3 261703Z 16019KT 26/19 A30 RMK A01 T02550190  RH  068%=      5-min Rain = 0
KHA3 261704Z 16015KT 25/19 A30 RMK A01 T02540191  RH  068%=      5-min Rain = 0
KHA3 261705Z 17020KT 25/19 A30 RMK A01 T02540190  RH  068%=      5-min Rain = 0
KHA3 261706Z 18017KT 25/19 A30 RMK A01 T02530188  RH  068%=      5-min Rain = 0
KHA3 261707Z 17017KT 25/19 A30 RMK A01 T02510189  RH  069%=      5-min Rain = 0
KHA3 261708Z 16016KT 25/19 A30 RMK A01 T02510190  RH  069%=      5-min Rain = 0
KHA3 261709Z 16016KT 25/19 A30 RMK A01 T02510190  RH  069%=      5-min Rain = 0
KHA3 261710Z 16016KT 25/19 A30 RMK A01 T02520193  RH  070%=      5-min Rain = 0
KHA3 261711Z 16017KT 25/19 A30 RMK A01 T02520190  RH  068%=      5-min Rain = 0
KHA3 261712Z 17016KT 25/19 A30 RMK A01 T02520191  RH  069%=      5-min Rain = 0
KHA3 261713Z 17017KT 25/19 A30 RMK A01 T02510189  RH  068%=      5-min Rain = 0
KHA3 261714Z 17016KT 25/19 A30 RMK A01 T02510190  RH  069%=      5-min Rain = 0
KHA3 261715Z 16015KT 25/19 A30 RMK A01 T02520190  RH  069%=      5-min Rain = 0
KHA3 261716Z 17018KT 25/19 A30 RMK A01 T02520190  RH  068%=      5-min Rain = 0
KHA3 261717Z 16016KT 25/19 A30 RMK A01 T02520190  RH  068%=      5-min Rain = 0
KHA3 261718Z 18017KT 25/19 A30 RMK A01 T02520190  RH  069%=      5-min Rain = 0
KHA3 261719Z 18018KT 25/19 A30 RMK A01 T02520191  RH  069%=      5-min Rain = 0
KHA3 261720Z 18016KT 25/19 A30 RMK A01 T02520190  RH  068%=      5-min Rain = 0
KHA3 261721Z 18016G21KT 25/19 A30 RMK A01 T02520191  RH  069%=      5-min Rain = 0
KHA3 261722Z 18019KT 25/19 A30 RMK A01 T02520190  RH  069%=      5-min Rain = 0
KHA3 261723Z 17016KT 25/19 A30 RMK A01 T02520192  RH  069%=      5-min Rain = 0
KHA3 261724Z 16015G23KT 25/20 A30 RMK A01 T02540195  RH  070%=      5-min Rain = 0
KHA3 261725Z 16016G22KT 26/19 A30 RMK A01 T02560192  RH  068%=      5-min Rain = 0
KHA3 261726Z 17016G21KT 26/19 A30 RMK A01 T02560192  RH  068%=      5-min Rain = 0
KHA3 261727Z 17017KT 26/19 A30 RMK A01 T02560191  RH  067%=      5-min Rain = 0
KHA3 261728Z 16014KT 26/19 A30 RMK A01 T02560191  RH  067%=      5-min Rain = 0
KHA3 261729Z 16012KT 26/19 A30 RMK A01 T02560193  RH  068%=      5-min Rain = 0
KHA3 261730Z 16013KT 26/20 A30 RMK A01 T02560195  RH  069%=      5-min Rain = 0
KHA3 261731Z 16016KT 26/19 A30 RMK A01 T02570194  RH  068%=      5-min Rain = 0
KHA3 261732Z 16016KT 26/19 A30 RMK A01 T02570193  RH  068%=      5-min Rain = 0
KHA3 261733Z 15014KT 26/19 A30 RMK A01 T02560192  RH  068%=      5-min Rain = 0
KHA3 261734Z 15017KT 26/19 A30 RMK A01 T02550193  RH  068%=      5-min Rain = 0
KHA3 261735Z 16015KT 26/19 A30 RMK A01 T02550192  RH  068%=      5-min Rain = 0
KHA3 261736Z 16014KT 25/19 A30 RMK A01 T02540193  RH  069%=      5-min Rain = 0
KHA3 261737Z 16013KT 25/19 A30 RMK A01 T02540194  RH  069%=      5-min Rain = 0
KHA3 261738Z 18015KT 26/19 A30 RMK A01 T02550194  RH  069%=      5-min Rain = 0
KHA3 261739Z 17017KT 26/19 A30 RMK A01 T02550192  RH  068%=      5-min Rain = 0
KHA3 261740Z 17016KT 25/19 A30 RMK A01 T02540192  RH  069%=      5-min Rain = 0
KHA3 261741Z 17017KT 25/19 A30 RMK A01 T02540192  RH  068%=      5-min Rain = 0
KHA3 261742Z 18016KT 25/19 A30 RMK A01 T02540192  RH  069%=      5-min Rain = 0
KHA3 261743Z 17015G20KT 25/19 A30 RMK A01 T02540192  RH  068%=      5-min Rain = 0
KHA3 261744Z 18017KT 26/19 A30 RMK A01 T02550193  RH  069%=      5-min Rain = 0
KHA3 261745Z 16013KT 26/19 A30 RMK A01 T02560194  RH  069%=      5-min Rain = 0
KHA3 261746Z 16013G18KT 26/20 A30 RMK A01 T02560195  RH  069%=      5-min Rain = 0
KHA3 261747Z 17014KT 26/20 A2999 RMK A01 T02570196  RH  069%=      5-min Rain = 0
KHA3 261748Z 16013KT 26/20 A30 RMK A01 T02580196  RH  069%=      5-min Rain = 0
KHA3 261749Z 17011KT 26/20 A30 RMK A01 T02590199  RH  069%=      5-min Rain = 0
KHA3 261750Z 17011G16KT 26/20 A30 RMK A01 T02600201  RH  070%=      5-min Rain = 0
KHA3 261751Z 17014KT 26/20 A30 RMK A01 T02610195  RH  067%=      5-min Rain = 0
KHA3 261752Z 17013KT 26/20 A30 RMK A01 T02610197  RH  068%=      5-min Rain = 0
KHA3 261753Z 17015KT 26/20 A30 RMK A01 T02610196  RH  068%=      5-min Rain = 0
KHA3 261754Z 17013KT 26/20 A30 RMK A01 T02600196  RH  067%=      5-min Rain = 0
KHA3 261755Z 18011KT 26/20 A30 RMK A01 T02600197  RH  069%=      5-min Rain = 0
KHA3 261756Z 16013G18KT 26/20 A30 RMK A01 T02600199  RH  069%=      5-min Rain = 0
KHA3 261757Z 17016KT 26/20 A30 RMK A01 T02610195  RH  067%=      5-min Rain = 0
KHA3 261758Z 17016KT 26/20 A30 RMK A01 T02600195  RH  067%=      5-min Rain = 0
KHA3 261759Z 17017KT 26/19 A30 RMK A01 T02600193  RH  067%=      5-min Rain = 0
KHA3 261800Z 18018KT 26/19 A30 RMK A01 T02590193  RH  067%=      5-min Rain = 0
KHA3 261801Z 18019KT 26/19 A2999 RMK A01 T02580193  RH  067%=      5-min Rain = 0
KHA3 261802Z 17017KT 26/19 A2999 RMK A01 T02580193  RH  067%=      5-min Rain = 0
KHA3 261803Z 17014KT 26/20 A2999 RMK A01 T02580196  RH  069%=      5-min Rain = 0
KHA3 261804Z 16014KT 26/20 A2999 RMK A01 T02590197  RH  069%=      5-min Rain = 0
KHA3 261805Z 16018KT 26/20 A2999 RMK A01 T02600195  RH  068%=      5-min Rain = 0
KHA3 261806Z 16019KT 26/20 A2999 RMK A01 T02600195  RH  067%=      5-min Rain = 0
KHA3 261807Z 17016KT 26/20 A2999 RMK A01 T02600196  RH  068%=      5-min Rain = 0
KHA3 261808Z 17018KT 26/20 A2999 RMK A01 T02600195  RH  067%=      5-min Rain = 0
KHA3 261809Z 17015KT 26/20 A2999 RMK A01 T02590196  RH  068%=      5-min Rain = 0
KHA3 261810Z 17015KT 26/20 A2999 RMK A01 T02590195  RH  068%=      5-min Rain = 0
KHA3 261811Z 17016G21KT 26/20 A2999 RMK A01 T02590196  RH  068%=      5-min Rain = 0
KHA3 261812Z 16016KT 26/19 A2999 RMK A01 T02590194  RH  067%=      5-min Rain = 0
KHA3 261813Z 17013KT 26/20 A2999 RMK A01 T02580196  RH  069%=      5-min Rain = 0
KHA3 261814Z 17016KT 26/20 A2999 RMK A01 T02590196  RH  068%=      5-min Rain = 0
KHA3 261815Z 17014KT 26/20 A2999 RMK A01 T02590195  RH  068%=      5-min Rain = 0
KHA3 261816Z 17014KT 26/20 A2999 RMK A01 T02590196  RH  068%=      5-min Rain = 0
KHA3 261817Z 17013KT 26/20 A2999 RMK A01 T02590195  RH  068%=      5-min Rain = 0
KHA3 261818Z 16012KT 26/20 A2999 RMK A01 T02590198  RH  069%=      5-min Rain = 0
KHA3 261819Z 16013KT 26/20 A2999 RMK A01 T02600197  RH  068%=      5-min Rain = 0
KHA3 261820Z 16011KT 26/20 A2999 RMK A01 T02610200  RH  069%=      5-min Rain = 0
KHA3 261821Z 16012KT 26/20 A2999 RMK A01 T02620201  RH  069%=      5-min Rain = 0
KHA3 261822Z 16013KT 26/20 A2999 RMK A01 T02630200  RH  068%=      5-min Rain = 0
KHA3 261823Z 17015KT 26/20 A2999 RMK A01 T02640198  RH  067%=      5-min Rain = 0
KHA3 261824Z 16016KT 26/20 A2999 RMK A01 T02630196  RH  066%=      5-min Rain = 0
KHA3 261825Z 16016KT 26/20 A2999 RMK A01 T02630197  RH  067%=      5-min Rain = 0
KHA3 261826Z 15016G21KT 26/20 A2999 RMK A01 T02630196  RH  066%=      5-min Rain = 0
KHA3 261827Z 15016G21KT 26/20 A2999 RMK A01 T02630196  RH  067%=      5-min Rain = 0
KHA3 261828Z 15013KT 26/20 A2999 RMK A01 T02630196  RH  067%=      5-min Rain = 0
KHA3 261829Z 15015G20KT 26/20 A2999 RMK A01 T02630196  RH  067%=      5-min Rain = 0
KHA3 261830Z 16016KT 26/20 A2999 RMK A01 T02630197  RH  067%=      5-min Rain = 0
KHA3 261831Z 16015KT 26/20 A2999 RMK A01 T02630198  RH  067%=      5-min Rain = 0
KHA3 261832Z 16016G22KT 26/20 A2999 RMK A01 T02630196  RH  067%=      5-min Rain = 0
KHA3 261833Z 16014KT 26/20 A2999 RMK A01 T02620197  RH  067%=      5-min Rain = 0
KHA3 261834Z 16011KT 26/20 A2999 RMK A01 T02620198  RH  068%=      5-min Rain = 0
KHA3 261835Z 17016KT 26/20 A2999 RMK A01 T02610197  RH  068%=      5-min Rain = 0
KHA3 261836Z 17014KT 26/20 A2999 RMK A01 T02610197  RH  067%=      5-min Rain = 0
KHA3 261837Z 17012KT 26/20 A2999 RMK A01 T02620198  RH  068%=      5-min Rain = 0
KHA3 261838Z 16013KT 26/20 A2999 RMK A01 T02620199  RH  068%=      5-min Rain = 0
KHA3 261839Z 17016KT 26/20 A2999 RMK A01 T02620198  RH  068%=      5-min Rain = 0
KHA3 261840Z 17015KT 26/20 A2999 RMK A01 T02620195  RH  067%=      5-min Rain = 0
KHA3 261841Z 16016KT 26/20 A2999 RMK A01 T02610196  RH  067%=      5-min Rain = 0
KHA3 261842Z 16014G20KT 26/20 A2999 RMK A01 T02610197  RH  068%=      5-min Rain = 0
KHA3 261843Z 17016KT 26/20 A2999 RMK A01 T02600196  RH  068%=      5-min Rain = 0
KHA3 261844Z 17015KT 26/20 A2999 RMK A01 T02600196  RH  068%=      5-min Rain = 0
KHA3 261845Z 16015KT 26/20 A2999 RMK A01 T02610197  RH  068%=      5-min Rain = 0
KHA3 261846Z 17013KT 26/20 A2999 RMK A01 T02610198  RH  068%=      5-min Rain = 0
KHA3 261847Z 17015KT 26/20 A2999 RMK A01 T02620197  RH  068%=      5-min Rain = 0
KHA3 261848Z 15015KT 26/20 A2999 RMK A01 T02620198  RH  068%=      5-min Rain = 0
KHA3 261849Z 15014KT 26/20 A2999 RMK A01 T02620197  RH  067%=      5-min Rain = 0
KHA3 261850Z 14014KT 26/20 A2998 RMK A01 T02620198  RH  068%=      5-min Rain = 0
KHA3 261851Z 15016KT 26/20 A2998 RMK A01 T02620196  RH  067%=      5-min Rain = 0
KHA3 261852Z 15013G18KT 26/20 A2998 RMK A01 T02620196  RH  067%=      5-min Rain = 0
KHA3 261853Z 17011KT 26/20 A2998 RMK A01 T02620199  RH  068%=      5-min Rain = 0
KHA3 261854Z 16013KT 26/20 A2999 RMK A01 T02620198  RH  068%=      5-min Rain = 0
KHA3 261855Z 14014KT 26/20 A2999 RMK A01 T02630198  RH  067%=      5-min Rain = 0
KHA3 261856Z 15017KT 26/20 A2999 RMK A01 T02630197  RH  067%=      5-min Rain = 0
KHA3 261857Z 15014KT 26/20 A2999 RMK A01 T02620198  RH  068%=      5-min Rain = 0
KHA3 261858Z 15012KT 26/20 A2999 RMK A01 T02610198  RH  068%=      5-min Rain = 0
KHA3 261859Z 15015KT 26/20 A2999 RMK A01 T02610198  RH  068%=      5-min Rain = 0
KHA3 261900Z 16015G20KT 26/20 A2999 RMK A01 T02610196  RH  067%=      5-min Rain = 0
KHA3 261901Z 15013KT 26/20 A2999 RMK A01 T02600197  RH  068%=      5-min Rain = 0
KHA3 261902Z 16014KT 26/20 A2999 RMK A01 T02600196  RH  068%=      5-min Rain = 0
KHA3 261903Z 16011KT 26/20 A2999 RMK A01 T02590197  RH  068%=      5-min Rain = 0
KHA3 261904Z 16014KT 26/20 A2998 RMK A01 T02590197  RH  068%=      5-min Rain = 0
KHA3 261905Z 15011KT 26/20 A2998 RMK A01 T02590198  RH  069%=      5-min Rain = 0
KHA3 261906Z 14013KT 26/20 A2998 RMK A01 T02580198  RH  069%=      5-min Rain = 0
KHA3 261907Z 14011KT 26/20 A2998 RMK A01 T02580196  RH  069%=      5-min Rain = 0
KHA3 261908Z 14013KT 26/20 A2998 RMK A01 T02580196  RH  069%=      5-min Rain = 0
KHA3 261909Z 15013KT 26/20 A2998 RMK A01 T02570195  RH  069%=      5-min Rain = 0
KHA3 261910Z 15012KT 26/20 A2998 RMK A01 T02570196  RH  069%=      5-min Rain = 0
KHA3 261911Z 15012G18KT 26/20 A2998 RMK A01 T02570197  RH  070%=      5-min Rain = 0
KHA3 261912Z 16011KT 26/20 A2998 RMK A01 T02570196  RH  069%=      5-min Rain = 0
KHA3 261913Z 16009KT 26/20 A2998 RMK A01 T02570197  RH  070%=      5-min Rain = 0
KHA3 261914Z 16012KT 26/20 A2998 RMK A01 T02570198  RH  070%=      5-min Rain = 0
KHA3 261915Z 16012KT 26/20 A2998 RMK A01 T02570197  RH  069%=      5-min Rain = 0
KHA3 261916Z 15013KT 26/20 A2998 RMK A01 T02570197  RH  069%=      5-min Rain = 0
KHA3 261917Z 14013G18KT 26/20 A2998 RMK A01 T02570197  RH  070%=      5-min Rain = 0
KHA3 261918Z 14014KT 26/20 A2998 RMK A01 T02570196  RH  069%=      5-min Rain = 0
KHA3 261919Z 16013KT 26/20 A2998 RMK A01 T02580199  RH  070%=      5-min Rain = 0
KHA3 261920Z 15013KT 26/20 A2998 RMK A01 T02580197  RH  069%=      5-min Rain = 0
KHA3 261921Z 16014KT 26/20 A2998 RMK A01 T02590197  RH  069%=      5-min Rain = 0
KHA3 261922Z 16013KT 26/20 A2998 RMK A01 T02590197  RH  069%=      5-min Rain = 0
KHA3 261923Z 16010KT 26/20 A2998 RMK A01 T02590198  RH  069%=      5-min Rain = 0
KHA3 261924Z 16010KT 26/20 A2998 RMK A01 T02600202  RH  071%=      5-min Rain = 0
KHA3 261925Z 16011KT 26/20 A2998 RMK A01 T02610200  RH  069%=      5-min Rain = 0
KHA3 261926Z 16012KT 26/20 A2998 RMK A01 T02610200  RH  069%=      5-min Rain = 0
KHA3 261927Z 16010G15KT 26/20 A2998 RMK A01 T02620201  RH  069%=      5-min Rain = 0
KHA3 261928Z 15013KT 26/20 A2998 RMK A01 T02610200  RH  069%=      5-min Rain = 0
KHA3 261929Z 16013KT 26/20 A2998 RMK A01 T02610200  RH  069%=      5-min Rain = 0
KHA3 261930Z 16012KT 26/20 A2998 RMK A01 T02610200  RH  069%=      5-min Rain = 0
KHA3 261931Z 16013KT 26/20 A2998 RMK A01 T02610199  RH  069%=      5-min Rain = 0
KHA3 261932Z 16013KT 26/20 A2998 RMK A01 T02610198  RH  068%=      5-min Rain = 0
KHA3 261933Z 16010KT 26/20 A2998 RMK A01 T02610200  RH  069%=      5-min Rain = 0
KHA3 261934Z 16009KT 26/20 A2998 RMK A01 T02610201  RH  070%=      5-min Rain = 0
KHA3 261935Z 15009G14KT 26/20 A2998 RMK A01 T02610204  RH  071%=      5-min Rain = 0
KHA3 261936Z 16011KT 26/20 A2998 RMK A01 T02600200  RH  070%=      5-min Rain = 0
KHA3 261937Z 16009KT 26/20 A2998 RMK A01 T02600201  RH  070%=      5-min Rain = 0
KHA3 261938Z 16009KT 26/20 A2998 RMK A01 T02600203  RH  070%=      5-min Rain = 0
KHA3 261939Z 15011KT 26/20 A2998 RMK A01 T02610203  RH  070%=      5-min Rain = 0
KHA3 261940Z 16013G18KT 26/20 A2997 RMK A01 T02610202  RH  070%=      5-min Rain = 0
KHA3 261941Z 16016KT 26/20 A2997 RMK A01 T02610198  RH  068%=      5-min Rain = 0
KHA3 261942Z 16014KT 26/20 A2997 RMK A01 T02620199  RH  068%=      5-min Rain = 0
KHA3 261943Z 16015KT 26/20 A2997 RMK A01 T02620199  RH  068%=      5-min Rain = 0
KHA3 261944Z 16015KT 26/20 A2998 RMK A01 T02630201  RH  069%=      5-min Rain = 0
KHA3 261945Z 16018KT 26/20 A2997 RMK A01 T02630199  RH  068%=      5-min Rain = 0
KHA3 261946Z 16015KT 26/20 A2997 RMK A01 T02640199  RH  067%=      5-min Rain = 0
KHA3 261947Z 16013G18KT 26/20 A2997 RMK A01 T02640200  RH  068%=      5-min Rain = 0
KHA3 261948Z 16013KT 26/20 A2997 RMK A01 T02640201  RH  068%=      5-min Rain = 0
KHA3 261949Z 17017KT 27/20 A2997 RMK A01 T02650199  RH  067%=      5-min Rain = 0
KHA3 261950Z 16015KT 27/20 A2997 RMK A01 T02650199  RH  067%=      5-min Rain = 0
KHA3 261951Z 16014KT 27/20 A2997 RMK A01 T02650200  RH  067%=      5-min Rain = 0
KHA3 261952Z 17013KT 27/20 A2997 RMK A01 T02650200  RH  067%=      5-min Rain = 0
KHA3 261953Z 16014KT 27/20 A2997 RMK A01 T02650201  RH  068%=      5-min Rain = 0
KHA3 261954Z 16012KT 27/20 A2997 RMK A01 T02660201  RH  068%=      5-min Rain = 0
KHA3 261955Z 16015KT 27/20 A2997 RMK A01 T02660201  RH  068%=      5-min Rain = 0
KHA3 261956Z 17013KT 27/20 A2997 RMK A01 T02660200  RH  067%=      5-min Rain = 0
KHA3 261957Z 17012KT 27/20 A2997 RMK A01 T02660201  RH  068%=      5-min Rain = 0
KHA3 261958Z 17014G19KT 27/20 A2997 RMK A01 T02660201  RH  067%=      5-min Rain = 0
KHA3 261959Z 16014KT 27/20 A2997 RMK A01 T02660201  RH  067%=      5-min Rain = 0
KHA3 262000Z 16013KT 27/20 A2997 RMK A01 T02660201  RH  067%=      5-min Rain = 0
KHA3 262001Z 16014KT 27/20 A2997 RMK A01 T02660202  RH  068%=      5-min Rain = 0
KHA3 262002Z 15014KT 27/20 A2997 RMK A01 T02670202  RH  067%=      5-min Rain = 0
KHA3 262003Z 16012KT 27/20 A2997 RMK A01 T02670203  RH  068%=      5-min Rain = 0
KHA3 262004Z 16013KT 27/20 A2997 RMK A01 T02670202  RH  067%=      5-min Rain = 0
KHA3 262005Z 15011KT 27/20 A2997 RMK A01 T02680203  RH  068%=      5-min Rain = 0
KHA3 262006Z 15013KT 27/20 A2997 RMK A01 T02680203  RH  067%=      5-min Rain = 0
KHA3 262007Z 15014KT 27/20 A2997 RMK A01 T02680200  RH  066%=      5-min Rain = 0
KHA3 262008Z 15014KT 27/20 A2997 RMK A01 T02680201  RH  067%=      5-min Rain = 0
KHA3 262009Z 16013KT 27/20 A2997 RMK A01 T02680200  RH  066%=      5-min Rain = 0
KHA3 262010Z 16012KT 27/20 A2997 RMK A01 T02680203  RH  067%=      5-min Rain = 0
KHA3 262011Z 16014KT 27/20 A2997 RMK A01 T02680202  RH  067%=      5-min Rain = 0
KHA3 262012Z 17013KT 27/20 A2997 RMK A01 T02680203  RH  068%=      5-min Rain = 0
KHA3 262013Z 17014KT 27/20 A2997 RMK A01 T02680201  RH  066%=      5-min Rain = 0
KHA3 262014Z 17013KT 27/20 A2997 RMK A01 T02680202  RH  067%=      5-min Rain = 0
KHA3 262015Z 17013KT 27/20 A2997 RMK A01 T02680203  RH  067%=      5-min Rain = 0
KHA3 262016Z 17014KT 27/20 A2997 RMK A01 T02690202  RH  067%=      5-min Rain = 0
KHA3 262017Z 17014KT 27/20 A2997 RMK A01 T02680203  RH  067%=      5-min Rain = 0
KHA3 262018Z 16013KT 27/20 A2997 RMK A01 T02690204  RH  067%=      5-min Rain = 0
KHA3 262019Z 15013KT 27/20 A2997 RMK A01 T02690204  RH  067%=      5-min Rain = 0
KHA3 262020Z 16013G18KT 27/20 A2997 RMK A01 T02690204  RH  068%=      5-min Rain = 0
KHA3 262021Z 15014KT 27/20 A2997 RMK A01 T02690202  RH  067%=      5-min Rain = 0
KHA3 262022Z 16017KT 27/20 A2997 RMK A01 T02690202  RH  067%=      5-min Rain = 0
KHA3 262023Z 16017KT 27/20 A2997 RMK A01 T02680200  RH  066%=      5-min Rain = 0
KHA3 262024Z 16018KT 27/20 A2997 RMK A01 T02670200  RH  067%=      5-min Rain = 0
KHA3 262025Z 17017KT 27/20 A2997 RMK A01 T02670200  RH  067%=      5-min Rain = 0
KHA3 262026Z 17013KT 27/20 A2997 RMK A01 T02660202  RH  068%=      5-min Rain = 0
KHA3 262027Z 16011KT 27/21 A2997 RMK A01 T02660205  RH  069%=      5-min Rain = 0
KHA3 262028Z 17014KT 27/20 A2997 RMK A01 T02660204  RH  069%=      5-min Rain = 0
KHA3 262029Z 16016KT 27/20 A2997 RMK A01 T02650201  RH  068%=      5-min Rain = 0
KHA3 262030Z 17013G18KT 26/20 A2997 RMK A01 T02640201  RH  068%=      5-min Rain = 0
KHA3 262031Z 16013KT 26/20 A2997 RMK A01 T02630202  RH  069%=      5-min Rain = 0
KHA3 262032Z 16013KT 26/20 A2997 RMK A01 T02630201  RH  069%=      5-min Rain = 0
KHA3 262033Z 16012KT 26/20 A2997 RMK A01 T02630203  RH  069%=      5-min Rain = 0
KHA3 262034Z 16013KT 26/20 A2997 RMK A01 T02630203  RH  070%=      5-min Rain = 0
KHA3 262035Z 16014KT 26/20 A2997 RMK A01 T02630203  RH  070%=      5-min Rain = 0
KHA3 262036Z 17013KT 26/20 A2997 RMK A01 T02640204  RH  070%=      5-min Rain = 0
KHA3 262037Z 17010KT 26/20 A2997 RMK A01 T02630204  RH  070%=      5-min Rain = 0
KHA3 262038Z 18014KT 26/20 A2997 RMK A01 T02640203  RH  069%=      5-min Rain = 0
KHA3 262039Z 17014G20KT 26/20 A2997 RMK A01 T02640203  RH  069%=      5-min Rain = 0
KHA3 262040Z 16017KT 26/20 A2997 RMK A01 T02640202  RH  069%=      5-min Rain = 0
KHA3 262041Z 17020KT 26/20 A2997 RMK A01 T02640200  RH  068%=      5-min Rain = 0
KHA3 262042Z 16017KT 27/20 A2997 RMK A01 T02650199  RH  067%=      5-min Rain = 0
KHA3 262043Z 17015KT 27/20 A2997 RMK A01 T02650202  RH  068%=      5-min Rain = 0
KHA3 262044Z 17016G21KT 26/20 A2997 RMK A01 T02640201  RH  068%=      5-min Rain = 0
KHA3 262045Z 17018KT 26/20 A2996 RMK A01 T02630201  RH  068%=      5-min Rain = 0
KHA3 262046Z 17016KT 26/20 A2996 RMK A01 T02630201  RH  069%=      5-min Rain = 0
KHA3 262047Z 17017KT 26/20 A2996 RMK A01 T02620201  RH  069%=      5-min Rain = 0
KHA3 262048Z 18016KT 26/20 A2996 RMK A01 T02620200  RH  069%=      5-min Rain = 0
KHA3 262049Z 17018KT 26/20 A2996 RMK A01 T02620200  RH  069%=      5-min Rain = 0
KHA3 262050Z 17021KT 26/20 A2996 RMK A01 T02620200  RH  069%=      5-min Rain = 0
KHA3 262051Z 17018KT 26/20 A2996 RMK A01 T02620200  RH  069%=      5-min Rain = 0
KHA3 262052Z 17017KT 26/20 A2996 RMK A01 T02620200  RH  069%=      5-min Rain = 0
KHA3 262053Z 17019KT 26/20 A2996 RMK A01 T02620201  RH  069%=      5-min Rain = 0
KHA3 262054Z 17016G22KT 26/20 A2996 RMK A01 T02630201  RH  069%=      5-min Rain = 0
KHA3 262055Z 17017KT 26/20 A2996 RMK A01 T02630201  RH  069%=      5-min Rain = 0
KHA3 262056Z 17013KT 26/20 A2997 RMK A01 T02630203  RH  070%=      5-min Rain = 0
KHA3 262057Z 18017KT 26/20 A2996 RMK A01 T02630202  RH  069%=      5-min Rain = 0
KHA3 262058Z 17016KT 26/20 A2997 RMK A01 T02630202  RH  069%=      5-min Rain = 0
KHA3 262059Z 17014KT 26/20 A2997 RMK A01 T02620203  RH  070%=      5-min Rain = 0
KHA3 262100Z 16013KT 26/20 A2997 RMK A01 T02620203  RH  070%=      5-min Rain = 0
KHA3 262101Z 16015G20KT 26/20 A2997 RMK A01 T02610203  RH  070%=      5-min Rain = 0
KHA3 262102Z 17015KT 26/20 A2997 RMK A01 T02610202  RH  070%=      5-min Rain = 0
KHA3 262103Z 17014KT 26/20 A2996 RMK A01 T02610203  RH  070%=      5-min Rain = 0
KHA3 262104Z 17016KT 26/20 A2996 RMK A01 T02610203  RH  070%=      5-min Rain = 0
KHA3 262105Z 18012KT 26/20 A2996 RMK A01 T02610204  RH  071%=      5-min Rain = 0
KHA3 262106Z 17013KT 26/20 A2996 RMK A01 T02610204  RH  071%=      5-min Rain = 0
KHA3 262107Z 17014KT 26/20 A2996 RMK A01 T02610204  RH  071%=      5-min Rain = 0
KHA3 262108Z 17013KT 26/20 A2996 RMK A01 T02610204  RH  070%=      5-min Rain = 0
KHA3 262109Z 18012KT 26/20 A2996 RMK A01 T02610204  RH  071%=      5-min Rain = 0
KHA3 262110Z 17012KT 26/21 A2996 RMK A01 T02610205  RH  071%=      5-min Rain = 0
KHA3 262111Z 17011KT 26/21 A2996 RMK A01 T02610205  RH  071%=      5-min Rain = 0
KHA3 262112Z 16011KT 26/21 A2996 RMK A01 T02620205  RH  071%=      5-min Rain = 0
KHA3 262113Z 16012KT 26/21 A2996 RMK A01 T02620205  RH  071%=      5-min Rain = 0
KHA3 262114Z 17013KT 26/20 A2995 RMK A01 T02620204  RH  070%=      5-min Rain = 0
KHA3 262115Z 17012G17KT 26/21 A2995 RMK A01 T02620205  RH  071%=      5-min Rain = 0
KHA3 262116Z 17013KT 26/20 A2995 RMK A01 T02620204  RH  071%=      5-min Rain = 0
KHA3 262117Z 17012KT 26/21 A2995 RMK A01 T02610205  RH  071%=      5-min Rain = 0
KHA3 262118Z 16013KT 26/21 A2995 RMK A01 T02610205  RH  071%=      5-min Rain = 0
KHA3 262119Z 17014KT 26/20 A2995 RMK A01 T02610204  RH  071%=      5-min Rain = 0
KHA3 262120Z 17014KT 26/20 A2995 RMK A01 T02610204  RH  071%=      5-min Rain = 0
KHA3 262121Z 17012KT 26/20 A2995 RMK A01 T02610203  RH  071%=      5-min Rain = 0
KHA3 262122Z 17012KT 26/21 A2995 RMK A01 T02610205  RH  071%=      5-min Rain = 0
KHA3 262123Z 17012KT 26/21 A2995 RMK A01 T02610206  RH  072%=      5-min Rain = 0
KHA3 262124Z 17017KT 26/20 A2995 RMK A01 T02610204  RH  071%=      5-min Rain = 0
KHA3 262125Z 17016KT 26/20 A2995 RMK A01 T02610202  RH  070%=      5-min Rain = 0
KHA3 262126Z 17018KT 26/20 A2995 RMK A01 T02610201  RH  069%=      5-min Rain = 0
KHA3 262127Z 17014KT 26/20 A2995 RMK A01 T02620201  RH  069%=      5-min Rain = 0
KHA3 262128Z 18019KT 26/20 A2995 RMK A01 T02620200  RH  069%=      5-min Rain = 0
KHA3 262129Z 18018KT 26/20 A2995 RMK A01 T02620198  RH  068%=      5-min Rain = 0
KHA3 262130Z 18017KT 26/20 A2995 RMK A01 T02620199  RH  068%=      5-min Rain = 0
KHA3 262131Z 18016G21KT 26/20 A2995 RMK A01 T02620200  RH  068%=      5-min Rain = 0
KHA3 262132Z 17014KT 26/20 A2995 RMK A01 T02620201  RH  069%=      5-min Rain = 0
KHA3 262133Z 18012KT 26/20 A2995 RMK A01 T02620202  RH  070%=      5-min Rain = 0
KHA3 262134Z 17011KT 26/20 A2995 RMK A01 T02610203  RH  070%=      5-min Rain = 0
KHA3 262135Z 17013KT 26/20 A2995 RMK A01 T02610204  RH  071%=      5-min Rain = 0
KHA3 262136Z 18015KT 26/20 A2995 RMK A01 T02610203  RH  070%=      5-min Rain = 0
KHA3 262137Z 17013KT 26/20 A2995 RMK A01 T02610203  RH  070%=      5-min Rain = 0
KHA3 262138Z 17012KT 26/21 A2995 RMK A01 T02610205  RH  071%=      5-min Rain = 0
KHA3 262139Z 16014KT 26/21 A2995 RMK A01 T02610205  RH  071%=      5-min Rain = 0
KHA3 262140Z 16015KT 26/20 A2994 RMK A01 T02610204  RH  071%=      5-min Rain = 0
KHA3 262141Z 16018KT 26/20 A2994 RMK A01 T02610204  RH  071%=      5-min Rain = 0
KHA3 262142Z 16017KT 26/20 A2994 RMK A01 T02610203  RH  070%=      5-min Rain = 0
KHA3 262143Z 17015KT 26/20 A2994 RMK A01 T02610203  RH  071%=      5-min Rain = 0
KHA3 262144Z 16015KT 26/20 A2994 RMK A01 T02600204  RH  071%=      5-min Rain = 0
KHA3 262145Z 16015KT 26/20 A2994 RMK A01 T02600204  RH  071%=      5-min Rain = 0
KHA3 262146Z 16016KT 26/20 A2994 RMK A01 T02600204  RH  071%=      5-min Rain = 0
KHA3 262147Z 16015KT 26/21 A2994 RMK A01 T02600205  RH  072%=      5-min Rain = 0
KHA3 262148Z 17014KT 26/20 A2994 RMK A01 T02600204  RH  071%=      5-min Rain = 0
KHA3 262149Z 17014KT 26/21 A2994 RMK A01 T02600205  RH  072%=      5-min Rain = 0
KHA3 262150Z 17017KT 26/20 A2994 RMK A01 T02600204  RH  071%=      5-min Rain = 0
KHA3 262151Z 17016KT 26/20 A2994 RMK A01 T02600204  RH  071%=      5-min Rain = 0
KHA3 262152Z 17013KT 26/21 A2994 RMK A01 T02600205  RH  072%=      5-min Rain = 0
KHA3 262153Z 17015KT 26/21 A2994 RMK A01 T02600205  RH  072%=      5-min Rain = 0
KHA3 262154Z 17012G18KT 26/21 A2994 RMK A01 T02600205  RH  072%=      5-min Rain = 0
KHA3 262155Z 17015KT 26/21 A2994 RMK A01 T02600205  RH  072%=      5-min Rain = 0
KHA3 262156Z 17014KT 26/21 A2994 RMK A01 T02600206  RH  072%=      5-min Rain = 0
KHA3 262157Z 17012KT 26/21 A2994 RMK A01 T02600206  RH  072%=      5-min Rain = 0
KHA3 262158Z 16014KT 26/21 A2994 RMK A01 T02590206  RH  072%=      5-min Rain = 0
KHA3 262159Z 17016KT 26/21 A2994 RMK A01 T02590205  RH  072%=      5-min Rain = 0
KHA3 262200Z 17016KT 26/20 A2994 RMK A01 T02590204  RH  072%=      5-min Rain = 0
KHA3 262201Z 17015G21KT 26/20 A2994 RMK A01 T02600204  RH  071%=      5-min Rain = 0
KHA3 262202Z 17014KT 26/20 A2994 RMK A01 T02600204  RH  072%=      5-min Rain = 0
KHA3 262203Z 17014KT 26/21 A2994 RMK A01 T02600205  RH  072%=      5-min Rain = 0
KHA3 262204Z 17015KT 26/21 A2994 RMK A01 T02600205  RH  072%=      5-min Rain = 0
KHA3 262205Z 17013KT 26/21 A2994 RMK A01 T02600205  RH  072%=      5-min Rain = 0
KHA3 262206Z 17013KT 26/21 A2994 RMK A01 T02610207  RH  072%=      5-min Rain = 0
KHA3 262207Z 16013KT 26/21 A2994 RMK A01 T02610206  RH  072%=      5-min Rain = 0
KHA3 262208Z 16013KT 26/21 A2994 RMK A01 T02620207  RH  072%=      5-min Rain = 0
KHA3 262209Z 16011KT 26/21 A2994 RMK A01 T02620208  RH  072%=      5-min Rain = 0
KHA3 262210Z 16012KT 26/21 A2994 RMK A01 T02630209  RH  072%=      5-min Rain = 0
KHA3 262211Z 16013KT 26/21 A2994 RMK A01 T02630207  RH  071%=      5-min Rain = 0
KHA3 262212Z 16012KT 26/21 A2994 RMK A01 T02630208  RH  072%=      5-min Rain = 0
KHA3 262213Z 16012KT 26/21 A2993 RMK A01 T02630209  RH  072%=      5-min Rain = 0
KHA3 262214Z 16012KT 26/21 A2993 RMK A01 T02630209  RH  072%=      5-min Rain = 0
KHA3 262215Z 16013KT 26/21 A2993 RMK A01 T02630207  RH  071%=      5-min Rain = 0
KHA3 262216Z 16014KT 26/21 A2993 RMK A01 T02630207  RH  071%=      5-min Rain = 0
KHA3 262217Z 16014KT 26/21 A2993 RMK A01 T02630206  RH  071%=      5-min Rain = 0
KHA3 262218Z 17012KT 26/21 A2993 RMK A01 T02630207  RH  071%=      5-min Rain = 0
KHA3 262219Z 17014KT 26/21 A2993 RMK A01 T02630208  RH  072%=      5-min Rain = 0
KHA3 262220Z 16012KT 26/21 A2993 RMK A01 T02630209  RH  072%=      5-min Rain = 0
KHA3 262221Z 16014KT 26/21 A2993 RMK A01 T02640208  RH  071%=      5-min Rain = 0
KHA3 262222Z 16017KT 26/21 A2993 RMK A01 T02640207  RH  071%=      5-min Rain = 0
KHA3 262223Z 16015KT 26/21 A2993 RMK A01 T02640206  RH  070%=      5-min Rain = 0
KHA3 262224Z 17016KT 26/21 A2993 RMK A01 T02640207  RH  071%=      5-min Rain = 0
KHA3 262225Z 16017KT 26/21 A2993 RMK A01 T02630205  RH  070%=      5-min Rain = 0
KHA3 262226Z 17015KT 26/21 A2993 RMK A01 T02630205  RH  070%=      5-min Rain = 0
KHA3 262227Z 17016KT 26/21 A2993 RMK A01 T02630205  RH  071%=      5-min Rain = 0
KHA3 262228Z 17017KT 26/21 A2993 RMK A01 T02630205  RH  071%=      5-min Rain = 0
KHA3 262229Z 16015KT 26/20 A2993 RMK A01 T02630204  RH  070%=      5-min Rain = 0
KHA3 262230Z 17014KT 26/21 A2993 RMK A01 T02630206  RH  071%=      5-min Rain = 0
KHA3 262231Z 16017KT 26/21 A2993 RMK A01 T02630205  RH  071%=      5-min Rain = 0
KHA3 262232Z 16015KT 26/21 A2993 RMK A01 T02630205  RH  071%=      5-min Rain = 0
KHA3 262233Z 17016KT 26/21 A2993 RMK A01 T02620205  RH  071%=      5-min Rain = 0
KHA3 262234Z 17014KT 26/21 A2993 RMK A01 T02630205  RH  071%=      5-min Rain = 0
KHA3 262235Z 16014KT 26/21 A2993 RMK A01 T02630206  RH  071%=      5-min Rain = 0
KHA3 262236Z 16013KT 26/21 A2993 RMK A01 T02630207  RH  071%=      5-min Rain = 0
KHA3 262237Z 16012G17KT 26/21 A2993 RMK A01 T02630207  RH  071%=      5-min Rain = 0
KHA3 262238Z 16014KT 26/21 A2993 RMK A01 T02640206  RH  071%=      5-min Rain = 0
KHA3 262239Z 16014G19KT 26/21 A2993 RMK A01 T02640207  RH  071%=      5-min Rain = 0
KHA3 262240Z 16017KT 26/21 A2993 RMK A01 T02640206  RH  070%=      5-min Rain = 0
KHA3 262241Z 16015KT 26/21 A2993 RMK A01 T02640205  RH  070%=      5-min Rain = 0
KHA3 262242Z 17015KT 26/21 A2993 RMK A01 T02640206  RH  070%=      5-min Rain = 0
KHA3 262243Z 17014KT 26/21 A2993 RMK A01 T02640206  RH  070%=      5-min Rain = 0
KHA3 262244Z 17016KT 26/21 A2993 RMK A01 T02640205  RH  070%=      5-min Rain = 0
KHA3 262245Z 17014KT 26/21 A2993 RMK A01 T02640206  RH  071%=      5-min Rain = 0
KHA3 262246Z 16011KT 26/21 A2993 RMK A01 T02640208  RH  071%=      5-min Rain = 0
KHA3 262247Z 17010KT 26/21 A2993 RMK A01 T02640210  RH  072%=      5-min Rain = 0
KHA3 262248Z 16014KT 26/21 A2993 RMK A01 T02630208  RH  072%=      5-min Rain = 0
KHA3 262249Z 17015KT 26/21 A2993 RMK A01 T02630206  RH  071%=      5-min Rain = 0
KHA3 262250Z 16012KT 26/21 A2993 RMK A01 T02630207  RH  071%=      5-min Rain = 0
KHA3 262251Z 16014KT 26/21 A2993 RMK A01 T02630207  RH  072%=      5-min Rain = 0
KHA3 262252Z 16013KT 26/21 A2993 RMK A01 T02620207  RH  071%=      5-min Rain = 0
KHA3 262253Z 16012KT 26/21 A2993 RMK A01 T02630208  RH  072%=      5-min Rain = 0
KHA3 262254Z 16012KT 26/21 A2993 RMK A01 T02630208  RH  072%=      5-min Rain = 0
KHA3 262255Z 16010KT 26/21 A2993 RMK A01 T02630208  RH  072%=      5-min Rain = 0
KHA3 262256Z 16011KT 26/21 A2992 RMK A01 T02630209  RH  072%=      5-min Rain = 0
KHA3 262257Z 15012KT 26/21 A2992 RMK A01 T02640209  RH  072%=      5-min Rain = 0
KHA3 262258Z 16010KT 26/21 A2992 RMK A01 T02640209  RH  072%=      5-min Rain = 0
KHA3 262259Z 15010KT 26/21 A2992 RMK A01 T02640209  RH  072%=      5-min Rain = 0
KHA3 262300Z 15011KT 27/21 A2992 RMK A01 T02650209  RH  072%=      5-min Rain = 0
KHA3 262301Z 15011KT 26/21 A2992 RMK A01 T02640208  RH  071%=      5-min Rain = 0
KHA3 262302Z 16012KT 26/21 A2992 RMK A01 T02640208  RH  071%=      5-min Rain = 0
KHA3 262303Z 14011KT 27/21 A2992 RMK A01 T02650209  RH  072%=      5-min Rain = 0
KHA3 262304Z 15011G16KT 26/21 A2992 RMK A01 T02640209  RH  072%=      5-min Rain = 0
KHA3 262305Z 15013KT 26/21 A2992 RMK A01 T02640208  RH  071%=      5-min Rain = 0
KHA3 262306Z 15016KT 26/21 A2992 RMK A01 T02640207  RH  071%=      5-min Rain = 0
KHA3 262307Z 16017KT 26/21 A2991 RMK A01 T02640206  RH  070%=      5-min Rain = 0
KHA3 262308Z 16013KT 26/21 A2991 RMK A01 T02640206  RH  070%=      5-min Rain = 0
KHA3 262309Z 15013KT 26/21 A2991 RMK A01 T02640207  RH  071%=      5-min Rain = 0
KHA3 262310Z 16013KT 26/21 A2991 RMK A01 T02640207  RH  071%=      5-min Rain = 0
KHA3 262311Z 15014KT 27/21 A2991 RMK A01 T02650207  RH  071%=      5-min Rain = 0
KHA3 262312Z 15013KT 26/21 A2991 RMK A01 T02640207  RH  070%=      5-min Rain = 0
KHA3 262313Z 16013KT 26/21 A2991 RMK A01 T02640207  RH  071%=      5-min Rain = 0
KHA3 262314Z 16014KT 26/21 A2991 RMK A01 T02640206  RH  071%=      5-min Rain = 0
KHA3 262315Z 15012KT 27/21 A2991 RMK A01 T02650206  RH  070%=      5-min Rain = 0
KHA3 262316Z 16012KT 26/21 A2991 RMK A01 T02640207  RH  071%=      5-min Rain = 0
KHA3 262317Z 16013G19KT 26/21 A2991 RMK A01 T02640207  RH  071%=      5-min Rain = 0
KHA3 262318Z 16016KT 26/21 A2991 RMK A01 T02640206  RH  070%=      5-min Rain = 0
KHA3 262319Z 16015KT 26/21 A2991 RMK A01 T02640206  RH  070%=      5-min Rain = 0
KHA3 262320Z 16013KT 26/21 A2991 RMK A01 T02640206  RH  071%=      5-min Rain = 0
KHA3 262321Z 16015KT 26/21 A2991 RMK A01 T02630206  RH  071%=      5-min Rain = 0
KHA3 262322Z 16013KT 26/21 A2991 RMK A01 T02630205  RH  070%=      5-min Rain = 0
KHA3 262323Z 15014KT 26/21 A2991 RMK A01 T02630205  RH  070%=      5-min Rain = 0
KHA3 262324Z 16014KT 26/21 A2991 RMK A01 T02630205  RH  070%=      5-min Rain = 0
KHA3 262325Z 16013KT 26/21 A2991 RMK A01 T02630206  RH  071%=      5-min Rain = 0
KHA3 262326Z 16013KT 26/21 A2991 RMK A01 T02630207  RH  071%=      5-min Rain = 0
KHA3 262327Z 16013KT 26/21 A2991 RMK A01 T02620205  RH  071%=      5-min Rain = 0
KHA3 262328Z 16015KT 26/21 A2991 RMK A01 T02630206  RH  071%=      5-min Rain = 0
KHA3 262329Z 16012KT 26/21 A299 RMK A01 T02630205  RH  071%=      5-min Rain = 0
KHA3 262330Z 16010KT 26/21 A299 RMK A01 T02630207  RH  071%=      5-min Rain = 0
KHA3 262331Z 15012KT 26/21 A299 RMK A01 T02620206  RH  071%=      5-min Rain = 0
KHA3 262332Z 16012KT 26/21 A299 RMK A01 T02620206  RH  071%=      5-min Rain = 0
KHA3 262333Z 16012KT 26/21 A299 RMK A01 T02620207  RH  072%=      5-min Rain = 0
KHA3 262334Z 16011KT 26/21 A299 RMK A01 T02620207  RH  071%=      5-min Rain = 0
KHA3 262335Z 15009KT 26/21 A299 RMK A01 T02620208  RH  072%=      5-min Rain = 0
KHA3 262336Z 16013KT 26/21 A299 RMK A01 T02620207  RH  072%=      5-min Rain = 0
KHA3 262337Z 16014KT 26/21 A299 RMK A01 T02620205  RH  071%=      5-min Rain = 0
KHA3 262338Z 15013KT 26/21 A299 RMK A01 T02620206  RH  071%=      5-min Rain = 0
KHA3 262339Z 15013KT 26/21 A2989 RMK A01 T02620205  RH  071%=      5-min Rain = 0
KHA3 262340Z 15011KT 26/21 A2989 RMK A01 T02620205  RH  071%=      5-min Rain = 0
KHA3 262341Z 15014KT 26/21 A2989 RMK A01 T02620206  RH  071%=      5-min Rain = 0
KHA3 262342Z 15014KT 26/21 A2989 RMK A01 T02620205  RH  071%=      5-min Rain = 0
KHA3 262343Z 15015KT 26/21 A2989 RMK A01 T02620205  RH  071%=      5-min Rain = 0
KHA3 262344Z 14014KT 26/21 A2989 RMK A01 T02620205  RH  071%=      5-min Rain = 0
KHA3 262345Z 15014KT 26/21 A2988 RMK A01 T02620205  RH  071%=      5-min Rain = 0
KHA3 262346Z 14014G19KT 26/21 A2988 RMK A01 T02620205  RH  071%=      5-min Rain = 0
KHA3 262347Z 14014G20KT 26/20 A2988 RMK A01 T02620204  RH  070%=      5-min Rain = 0
KHA3 262348Z 15015KT 26/20 A2988 RMK A01 T02610203  RH  070%=      5-min Rain = 0
KHA3 262349Z 14013KT 26/20 A2988 RMK A01 T02620204  RH  071%=      5-min Rain = 0
KHA3 262350Z 14014KT 26/20 A2988 RMK A01 T02610204  RH  071%=      5-min Rain = 0
KHA3 262351Z 14013KT 26/20 A2988 RMK A01 T02610204  RH  071%=      5-min Rain = 0
KHA3 262352Z 14013KT 26/20 A2987 RMK A01 T02610204  RH  071%=      5-min Rain = 0
KHA3 262353Z 14013KT 26/20 A2987 RMK A01 T02610204  RH  071%=      5-min Rain = 0
KHA3 262354Z 14013KT 26/20 A2987 RMK A01 T02600204  RH  071%=      5-min Rain = 0
KHA3 262355Z 13012KT 26/20 A2987 RMK A01 T02600203  RH  071%=      5-min Rain = 0
KHA3 262356Z 13013KT 26/20 A2987 RMK A01 T02600204  RH  071%=      5-min Rain = 0
KHA3 262357Z 14013KT 26/20 A2987 RMK A01 T02600204  RH  071%=      5-min Rain = 0
KHA3 262358Z 14014KT 26/20 A2987 RMK A01 T02600204  RH  071%=      5-min Rain = 0
KHA3 262359Z 14011KT 26/20 A2987 RMK A01 T02600204  RH  071%=      5-min Rain = 0
KHA3 270000Z 14013KT 26/20 A2987 RMK A01 T02600204  RH  071%=      5-min Rain = 0
KHA3 270001Z 14010G15KT 26/21 A2987 RMK A01 T02600205  RH  071%=      5-min Rain = 0
KHA3 270002Z 14010KT 26/21 A2987 RMK A01 T02590205  RH  072%=      5-min Rain = 0
KHA3 270003Z 13008KT 26/21 A2987 RMK A01 T02590205  RH  072%=      5-min Rain = 0
KHA3 270004Z 13010KT 26/21 A2987 RMK A01 T02580205  RH  073%=      5-min Rain = 0
KHA3 270005Z 14011KT 26/21 A2987 RMK A01 T02580205  RH  073%=      5-min Rain = 0
KHA3 270006Z 13010KT 26/20 A2987 RMK A01 T02570204  RH  072%=      5-min Rain = 0
KHA3 270007Z 13010KT 26/20 A2987 RMK A01 T02570204  RH  072%=      5-min Rain = 0
KHA3 270008Z 13010KT 26/20 A2987 RMK A01 T02570204  RH  072%=      5-min Rain = 0
KHA3 270009Z 14010KT 26/20 A2986 RMK A01 T02570204  RH  073%=      5-min Rain = 0
KHA3 270010Z 13008KT 26/21 A2986 RMK A01 T02580206  RH  073%=      5-min Rain = 0
KHA3 270011Z 14010KT 26/21 A2986 RMK A01 T02570206  RH  073%=      5-min Rain = 0
KHA3 270012Z 13010KT 26/20 A2986 RMK A01 T02570204  RH  073%=      5-min Rain = 0
KHA3 270013Z 14008KT 26/21 A2987 RMK A01 T02560205  RH  073%=      5-min Rain = 0
KHA3 270014Z 14008KT 26/21 A2987 RMK A01 T02570205  RH  073%=      5-min Rain = 0
KHA3 270015Z 14009KT 26/21 A2987 RMK A01 T02570205  RH  073%=      5-min Rain = 0
KHA3 270016Z 14009KT 26/20 A2987 RMK A01 T02560204  RH  073%=      5-min Rain = 0
KHA3 270017Z 14009KT 26/20 A2987 RMK A01 T02570204  RH  073%=      5-min Rain = 0
KHA3 270018Z 14010KT 26/20 A2987 RMK A01 T02570204  RH  072%=      5-min Rain = 0
KHA3 270019Z 15008KT 26/20 A2988 RMK A01 T02570204  RH  072%=      5-min Rain = 0
KHA3 270020Z 15009KT 26/21 A2988 RMK A01 T02570205  RH  073%=      5-min Rain = 0
KHA3 270021Z 15007KT 26/21 A2988 RMK A01 T02580206  RH  073%=      5-min Rain = 0
KHA3 270022Z 15009KT 26/21 A2988 RMK A01 T02570206  RH  073%=      5-min Rain = 0
KHA3 270023Z 15008KT 26/21 A2988 RMK A01 T02570205  RH  073%=      5-min Rain = 0
KHA3 270024Z 15007KT 26/21 A2988 RMK A01 T02570206  RH  074%=      5-min Rain = 0
KHA3 270025Z 15010KT 26/21 A2988 RMK A01 T02560206  RH  074%=      5-min Rain = 0
KHA3 270026Z 14008KT 26/21 A2988 RMK A01 T02560205  RH  074%=      5-min Rain = 0
KHA3 270027Z 15008KT 26/21 A2987 RMK A01 T02560206  RH  074%=      5-min Rain = 0
KHA3 270028Z 14010KT 26/21 A2987 RMK A01 T02550205  RH  074%=      5-min Rain = 0
KHA3 270029Z 14010KT 26/20 A2987 RMK A01 T02550204  RH  073%=      5-min Rain = 0
KHA3 270030Z 15010KT 26/20 A2987 RMK A01 T02550204  RH  073%=      5-min Rain = 0
KHA3 270031Z 15010KT 26/20 A2987 RMK A01 T02560204  RH  073%=      5-min Rain = 0
KHA3 270032Z 14009KT 26/20 A2987 RMK A01 T02560204  RH  073%=      5-min Rain = 0
KHA3 270033Z 14009KT 26/20 A2987 RMK A01 T02560204  RH  073%=      5-min Rain = 0
KHA3 270034Z 15009KT 26/20 A2987 RMK A01 T02560204  RH  073%=      5-min Rain = 0
KHA3 270035Z 15010KT 26/20 A2987 RMK A01 T02570203  RH  072%=      5-min Rain = 0
KHA3 270036Z 15008KT 26/20 A2987 RMK A01 T02570204  RH  072%=      5-min Rain = 0
KHA3 270037Z 15010KT 26/20 A2987 RMK A01 T02570204  RH  072%=      5-min Rain = 0
KHA3 270038Z 15010KT 26/20 A2987 RMK A01 T02570202  RH  072%=      5-min Rain = 0
KHA3 270039Z 15010KT 26/20 A2987 RMK A01 T02570203  RH  072%=      5-min Rain = 0
KHA3 270040Z 15011KT 26/20 A2987 RMK A01 T02580202  RH  071%=      5-min Rain = 0
KHA3 270041Z 15012KT 26/20 A2987 RMK A01 T02580203  RH  071%=      5-min Rain = 0
KHA3 270042Z 15010KT 26/20 A2987 RMK A01 T02590201  RH  070%=      5-min Rain = 0
KHA3 270043Z 15011KT 26/20 A2988 RMK A01 T02590202  RH  071%=      5-min Rain = 0
KHA3 270044Z 15012KT 26/20 A2988 RMK A01 T02590202  RH  071%=      5-min Rain = 0
KHA3 270045Z 15011KT 26/20 A2987 RMK A01 T02590202  RH  070%=      5-min Rain = 0
KHA3 270046Z 15011KT 26/20 A2987 RMK A01 T02590202  RH  071%=      5-min Rain = 0
KHA3 270047Z 14010KT 26/20 A2987 RMK A01 T02590201  RH  070%=      5-min Rain = 0
KHA3 270048Z 14010KT 26/20 A2987 RMK A01 T02590202  RH  071%=      5-min Rain = 0
KHA3 270049Z 14010KT 26/20 A2987 RMK A01 T02590203  RH  071%=      5-min Rain = 0
KHA3 270050Z 14014KT 26/20 A2987 RMK A01 T02580200  RH  070%=      5-min Rain = 0
KHA3 270051Z 14011KT 26/20 A2987 RMK A01 T02590200  RH  070%=      5-min Rain = 0
KHA3 270052Z 15011KT 26/20 A2987 RMK A01 T02590200  RH  070%=      5-min Rain = 0
KHA3 270053Z 14010KT 26/20 A2987 RMK A01 T02600201  RH  070%=      5-min Rain = 0
KHA3 270054Z 14010KT 26/20 A2987 RMK A01 T02590201  RH  070%=      5-min Rain = 0
KHA3 270055Z 14011KT 26/20 A2987 RMK A01 T02590200  RH  070%=      5-min Rain = 0
KHA3 270056Z 14011KT 26/20 A2986 RMK A01 T02590200  RH  070%=      5-min Rain = 0
KHA3 270057Z 14009KT 26/20 A2986 RMK A01 T02580201  RH  071%=      5-min Rain = 0
KHA3 270058Z 14009KT 26/20 A2986 RMK A01 T02580201  RH  071%=      5-min Rain = 0
KHA3 270059Z 14010KT 26/20 A2986 RMK A01 T02570201  RH  071%=      5-min Rain = 0
KHA3 270100Z 14009KT 26/20 A2986 RMK A01 T02570201  RH  071%=      5-min Rain = 0
KHA3 270101Z 14009KT 26/20 A2987 RMK A01 T02560201  RH  071%=      5-min Rain = 0
KHA3 270102Z 14010KT 26/20 A2987 RMK A01 T02560201  RH  072%=      5-min Rain = 0
KHA3 270103Z 14010KT 26/20 A2987 RMK A01 T02550200  RH  072%=      5-min Rain = 0
KHA3 270104Z 14010KT 26/20 A2987 RMK A01 T02560201  RH  072%=      5-min Rain = 0
KHA3 270105Z 14010KT 26/20 A2987 RMK A01 T02560201  RH  072%=      5-min Rain = 0
KHA3 270106Z 14011KT 26/20 A2987 RMK A01 T02560200  RH  071%=      5-min Rain = 0
KHA3 270107Z 14010KT 26/20 A2987 RMK A01 T02560200  RH  071%=      5-min Rain = 0
KHA3 270108Z 14010KT 26/20 A2987 RMK A01 T02560200  RH  071%=      5-min Rain = 0
KHA3 270109Z 14010KT 26/20 A2987 RMK A01 T02560201  RH  072%=      5-min Rain = 0
KHA3 270110Z 15011KT 26/20 A2987 RMK A01 T02560200  RH  071%=      5-min Rain = 0
KHA3 270111Z 14011KT 26/20 A2987 RMK A01 T02560200  RH  071%=      5-min Rain = 0
KHA3 270112Z 14009KT 26/20 A2986 RMK A01 T02560200  RH  071%=      5-min Rain = 0
KHA3 270113Z 14010KT 26/20 A2986 RMK A01 T02560201  RH  072%=      5-min Rain = 0
KHA3 270114Z 14011KT 26/20 A2986 RMK A01 T02560200  RH  071%=      5-min Rain = 0
KHA3 270115Z 14012KT 26/20 A2986 RMK A01 T02560200  RH  071%=      5-min Rain = 0
KHA3 270116Z 14010G15KT 26/20 A2986 RMK A01 T02560200  RH  071%=      5-min Rain = 0
KHA3 270117Z 14011KT 26/20 A2986 RMK A01 T02570201  RH  071%=      5-min Rain = 0
KHA3 270118Z 14012KT 26/20 A2985 RMK A01 T02560200  RH  071%=      5-min Rain = 0
KHA3 270119Z 14011KT 26/20 A2985 RMK A01 T02570200  RH  071%=      5-min Rain = 0
KHA3 270120Z 13012KT 26/20 A2985 RMK A01 T02570201  RH  071%=      5-min Rain = 0
KHA3 270121Z 13012KT 26/20 A2985 RMK A01 T02560199  RH  071%=      5-min Rain = 0
KHA3 270122Z 13012KT 26/20 A2984 RMK A01 T02560199  RH  071%=      5-min Rain = 0
KHA3 270123Z 13012KT 26/20 A2984 RMK A01 T02570200  RH  071%=      5-min Rain = 0
KHA3 270124Z 13013KT 26/20 A2984 RMK A01 T02560200  RH  071%=      5-min Rain = 0
KHA3 270125Z 13013KT 26/20 A2984 RMK A01 T02550200  RH  071%=      5-min Rain = 0
KHA3 270126Z 13014KT 26/20 A2984 RMK A01 T02550199  RH  071%=      5-min Rain = 0
KHA3 270127Z 13014KT 26/20 A2984 RMK A01 T02550198  RH  071%=      5-min Rain = 0
KHA3 270128Z 13015KT 26/20 A2983 RMK A01 T02560199  RH  071%=      5-min Rain = 0
KHA3 270129Z 13013KT 26/20 A2983 RMK A01 T02560199  RH  071%=      5-min Rain = 0
KHA3 270130Z 13013KT 26/20 A2983 RMK A01 T02550200  RH  071%=      5-min Rain = 0
KHA3 270131Z 13015KT 25/20 A2982 RMK A01 T02540199  RH  071%=      5-min Rain = 0
KHA3 270132Z 12016KT 25/20 A2982 RMK A01 T02540199  RH  071%=      5-min Rain = 0
KHA3 270133Z 12014KT 25/20 A2982 RMK A01 T02540198  RH  071%=      5-min Rain = 0
KHA3 270134Z 13015KT 25/20 A2981 RMK A01 T02540199  RH  072%=      5-min Rain = 0
KHA3 270135Z 13015KT 25/20 A2981 RMK A01 T02530199  RH  072%=      5-min Rain = 0
KHA3 270136Z 13017KT 25/20 A2981 RMK A01 T02530198  RH  072%=      5-min Rain = 0
KHA3 270137Z 13018KT 25/20 A2981 RMK A01 T02520197  RH  071%=      5-min Rain = 0
KHA3 270138Z 13018KT 25/20 A2981 RMK A01 T02530196  RH  071%=      5-min Rain = 0
KHA3 270139Z 13016KT 25/20 A2981 RMK A01 T02530196  RH  071%=      5-min Rain = 0
KHA3 270140Z 13017KT 25/20 A298 RMK A01 T02530197  RH  071%=      5-min Rain = 0
KHA3 270141Z 13017KT 25/20 A298 RMK A01 T02520197  RH  071%=      5-min Rain = 0
KHA3 270142Z 13019KT 25/20 A298 RMK A01 T02520197  RH  072%=      5-min Rain = 0
KHA3 270143Z 13017G22KT 25/20 A298 RMK A01 T02520197  RH  072%=      5-min Rain = 0
KHA3 270144Z 13018KT 25/20 A298 RMK A01 T02510197  RH  072%=      5-min Rain = 0
KHA3 270145Z 13016KT 25/20 A298 RMK A01 T02510198  RH  072%=      5-min Rain = 0
KHA3 270146Z 13017KT 25/20 A298 RMK A01 T02510197  RH  072%=      5-min Rain = 0
KHA3 270147Z 13017KT 25/20 A298 RMK A01 T02510198  RH  072%=      5-min Rain = 0
KHA3 270148Z 13017KT 25/20 A298 RMK A01 T02510198  RH  072%=      5-min Rain = 0
KHA3 270149Z 13017KT 25/20 A298 RMK A01 T02510198  RH  072%=      5-min Rain = 0
KHA3 270150Z 13018G23KT 25/20 A298 RMK A01 T02510198  RH  072%=      5-min Rain = 0
KHA3 270151Z 13017KT 25/20 A298 RMK A01 T02510197  RH  072%=      5-min Rain = 0
KHA3 270152Z 13017KT 25/20 A298 RMK A01 T02500198  RH  072%=      5-min Rain = 0
KHA3 270153Z 13014G19KT 25/20 A298 RMK A01 T02510198  RH  072%=      5-min Rain = 0
KHA3 270154Z 14014KT 25/20 A2981 RMK A01 T02500198  RH  073%=      5-min Rain = 0
KHA3 270155Z 14014KT 25/20 A2981 RMK A01 T02500198  RH  073%=      5-min Rain = 0
KHA3 270156Z 14014KT 25/20 A2981 RMK A01 T02500198  RH  073%=      5-min Rain = 0
KHA3 270157Z 14014KT 25/20 A2981 RMK A01 T02500198  RH  073%=      5-min Rain = 0
KHA3 270158Z 14012KT 25/20 A2982 RMK A01 T02490198  RH  073%=      5-min Rain = 0
KHA3 270159Z 14013KT 25/20 A2982 RMK A01 T02480198  RH  073%=      5-min Rain = 0
KHA3 270200Z 14014KT 25/20 A2982 RMK A01 T02480198  RH  073%=      5-min Rain = 0
KHA3 270201Z 14012KT 25/20 A2982 RMK A01 T02480197  RH  073%=      5-min Rain = 0
KHA3 270202Z 14013G20KT 25/20 A2982 RMK A01 T02480197  RH  073%=      5-min Rain = 0
KHA3 270203Z 14015G20KT 25/20 A2982 RMK A01 T02480197  RH  073%=      5-min Rain = 0
KHA3 270204Z 14014KT 25/20 A2982 RMK A01 T02480196  RH  073%=      5-min Rain = 0
KHA3 270205Z 14013KT 25/20 A2982 RMK A01 T02490196  RH  073%=      5-min Rain = 0
KHA3 270206Z 14013G18KT 25/20 A2983 RMK A01 T02490197  RH  073%=      5-min Rain = 0
KHA3 270207Z 14015KT 25/20 A2983 RMK A01 T02490197  RH  073%=      5-min Rain = 0
KHA3 270208Z 16013G18KT 25/20 A2983 RMK A01 T02490197  RH  073%=      5-min Rain = 0
KHA3 270209Z 16014KT 25/20 A2984 RMK A01 T02480196  RH  073%=      5-min Rain = 0
KHA3 270210Z 16013KT 25/20 A2984 RMK A01 T02480196  RH  073%=      5-min Rain = 0
KHA3 270211Z 16012KT 25/20 A2984 RMK A01 T02490197  RH  073%=      5-min Rain = 0
KHA3 270212Z 16012G17KT 25/20 A2984 RMK A01 T02480196  RH  073%=      5-min Rain = 0
KHA3 270213Z 16013KT 25/20 A2984 RMK A01 T02480196  RH  073%=      5-min Rain = 0
KHA3 270214Z 16011KT 25/20 A2984 RMK A01 T02480196  RH  073%=      5-min Rain = 0
KHA3 270215Z 15012KT 25/20 A2984 RMK A01 T02480196  RH  073%=      5-min Rain = 0
KHA3 270216Z 15012KT 25/20 A2984 RMK A01 T02470196  RH  073%=      5-min Rain = 0
KHA3 270217Z 15013KT 25/20 A2984 RMK A01 T02470196  RH  073%=      5-min Rain = 0
KHA3 270218Z 15013KT 25/20 A2984 RMK A01 T02470195  RH  073%=      5-min Rain = 0
KHA3 270219Z 15013G18KT 25/20 A2984 RMK A01 T02470195  RH  073%=      5-min Rain = 0
KHA3 270220Z 15013KT 25/20 A2984 RMK A01 T02470196  RH  073%=      5-min Rain = 0
KHA3 270221Z 15014KT 25/20 A2984 RMK A01 T02470196  RH  073%=      5-min Rain = 0
KHA3 270222Z 15014KT 25/20 A2984 RMK A01 T02470196  RH  073%=      5-min Rain = 0
KHA3 270223Z 15014KT 25/20 A2984 RMK A01 T02470196  RH  073%=      5-min Rain = 0
KHA3 270224Z 15014KT 25/20 A2984 RMK A01 T02470196  RH  073%=      5-min Rain = 0
KHA3 270225Z 15013G19KT 25/20 A2984 RMK A01 T02470196  RH  073%=      5-min Rain = 0
KHA3 270226Z 15015KT 25/20 A2984 RMK A01 T02480195  RH  073%=      5-min Rain = 0
KHA3 270227Z 15014KT 25/20 A2984 RMK A01 T02480195  RH  072%=      5-min Rain = 0
KHA3 270228Z 15013KT 25/20 A2984 RMK A01 T02490195  RH  072%=      5-min Rain = 0
KHA3 270229Z 15013G19KT 25/20 A2984 RMK A01 T02480196  RH  072%=      5-min Rain = 0
KHA3 270230Z 15015KT 25/20 A2984 RMK A01 T02480196  RH  073%=      5-min Rain = 0
KHA3 270231Z 15014KT 25/20 A2984 RMK A01 T02480195  RH  073%=      5-min Rain = 0
KHA3 270232Z 15012KT 25/20 A2984 RMK A01 T02480196  RH  073%=      5-min Rain = 0
KHA3 270233Z 15015KT 25/20 A2984 RMK A01 T02480196  RH  073%=      5-min Rain = 0
KHA3 270234Z 15016KT 25/20 A2984 RMK A01 T02480195  RH  072%=      5-min Rain = 0
KHA3 270235Z 15014KT 25/20 A2984 RMK A01 T02500196  RH  072%=      5-min Rain = 0
KHA3 270236Z 16013KT 25/20 A2984 RMK A01 T02500196  RH  072%=      5-min Rain = 0
KHA3 270237Z 15013KT 25/20 A2984 RMK A01 T02490196  RH  072%=      5-min Rain = 0
KHA3 270238Z 16014KT 25/20 A2984 RMK A01 T02490196  RH  073%=      5-min Rain = 0
KHA3 270239Z 16014KT 25/20 A2985 RMK A01 T02480196  RH  072%=      5-min Rain = 0
KHA3 270240Z 15012G17KT 25/20 A2984 RMK A01 T02480196  RH  073%=      5-min Rain = 0
KHA3 270241Z 15015KT 25/20 A2984 RMK A01 T02480196  RH  073%=      5-min Rain = 0
KHA3 270242Z 15013KT 25/20 A2984 RMK A01 T02480196  RH  073%=      5-min Rain = 0
KHA3 270243Z 15013KT 25/20 A2984 RMK A01 T02480196  RH  073%=      5-min Rain = 0
KHA3 270244Z 15014KT 25/20 A2984 RMK A01 T02480196  RH  073%=      5-min Rain = 0
KHA3 270245Z 15014KT 25/20 A2984 RMK A01 T02470196  RH  073%=      5-min Rain = 0
KHA3 270246Z 15012KT 25/20 A2985 RMK A01 T02480196  RH  073%=      5-min Rain = 0
KHA3 270247Z 15013KT 25/20 A2985 RMK A01 T02470196  RH  073%=      5-min Rain = 0
KHA3 270248Z 15014KT 25/20 A2985 RMK A01 T02470196  RH  073%=      5-min Rain = 0
KHA3 270249Z 15012KT 25/20 A2985 RMK A01 T02470196  RH  073%=      5-min Rain = 0
KHA3 270250Z 15012KT 25/20 A2985 RMK A01 T02470196  RH  073%=      5-min Rain = 0
KHA3 270251Z 15012KT 25/20 A2985 RMK A01 T02470196  RH  073%=      5-min Rain = 0
KHA3 270252Z 15013KT 25/20 A2985 RMK A01 T02460195  RH  073%=      5-min Rain = 0
KHA3 270253Z 15011KT 25/20 A2985 RMK A01 T02470196  RH  073%=      5-min Rain = 0
KHA3 270254Z 15012KT 25/20 A2985 RMK A01 T02460196  RH  074%=      5-min Rain = 0
KHA3 270255Z 15011KT 25/20 A2985 RMK A01 T02460195  RH  073%=      5-min Rain = 0
KHA3 270256Z 15013KT 25/20 A2985 RMK A01 T02460196  RH  074%=      5-min Rain = 0
KHA3 270257Z 15010KT 25/20 A2985 RMK A01 T02460196  RH  074%=      5-min Rain = 0
KHA3 270258Z 15011KT 25/20 A2985 RMK A01 T02450196  RH  074%=      5-min Rain = 0
KHA3 270259Z 15012KT 24/20 A2985 RMK A01 T02440195  RH  074%=      5-min Rain = 0
KHA3 270300Z 15013KT 24/20 A2985 RMK A01 T02440195  RH  074%=      5-min Rain = 0
KHA3 270301Z 15012KT 24/20 A2985 RMK A01 T02440195  RH  074%=      5-min Rain = 0
KHA3 270302Z 15013KT 25/20 A2985 RMK A01 T02450195  RH  074%=      5-min Rain = 0
KHA3 270303Z 15012KT 25/20 A2986 RMK A01 T02450195  RH  074%=      5-min Rain = 0
KHA3 270304Z 15012KT 25/20 A2986 RMK A01 T02450195  RH  074%=      5-min Rain = 0
KHA3 270305Z 16012KT 25/20 A2986 RMK A01 T02450196  RH  074%=      5-min Rain = 0
KHA3 270306Z 15013KT 24/20 A2986 RMK A01 T02440196  RH  074%=      5-min Rain = 0
KHA3 270307Z 15013KT 24/20 A2986 RMK A01 T02440196  RH  074%=      5-min Rain = 0
KHA3 270308Z 15013KT 24/20 A2986 RMK A01 T02440196  RH  074%=      5-min Rain = 0
KHA3 270309Z 15012KT 24/20 A2986 RMK A01 T02440195  RH  074%=      5-min Rain = 0
KHA3 270310Z 15013KT 24/20 A2985 RMK A01 T02440195  RH  074%=      5-min Rain = 0
KHA3 270311Z 15014KT 24/20 A2985 RMK A01 T02440195  RH  074%=      5-min Rain = 0
KHA3 270312Z 15013KT 24/20 A2985 RMK A01 T02440196  RH  074%=      5-min Rain = 0
KHA3 270313Z 15012KT 24/20 A2985 RMK A01 T02440195  RH  074%=      5-min Rain = 0
KHA3 270314Z 15012KT 24/20 A2985 RMK A01 T02430195  RH  075%=      5-min Rain = 0
KHA3 270315Z 15012KT 24/20 A2986 RMK A01 T02430195  RH  075%=      5-min Rain = 0
KHA3 270316Z 15012KT 24/20 A2986 RMK A01 T02420195  RH  075%=      5-min Rain = 0
KHA3 270317Z 15013KT 24/20 A2986 RMK A01 T02420195  RH  075%=      5-min Rain = 0
KHA3 270318Z 15013KT 24/20 A2986 RMK A01 T02420195  RH  075%=      5-min Rain = 0
KHA3 270319Z 15012KT 24/20 A2986 RMK A01 T02420195  RH  075%=      5-min Rain = 0
KHA3 270320Z 15013KT 24/20 A2986 RMK A01 T02420195  RH  075%=      5-min Rain = 0
KHA3 270321Z 15011KT 24/20 A2986 RMK A01 T02420195  RH  075%=      5-min Rain = 0
KHA3 270322Z 15012KT 24/20 A2986 RMK A01 T02430195  RH  075%=      5-min Rain = 0
KHA3 270323Z 15012KT 24/20 A2987 RMK A01 T02420195  RH  075%=      5-min Rain = 0
KHA3 270324Z 15012KT 24/20 A2987 RMK A01 T02420195  RH  075%=      5-min Rain = 0
KHA3 270325Z 15012KT 24/20 A2987 RMK A01 T02420195  RH  075%=      5-min Rain = 0
KHA3 270326Z 15010KT 24/20 A2987 RMK A01 T02420195  RH  075%=      5-min Rain = 0
KHA3 270327Z 15012KT 24/20 A2987 RMK A01 T02420195  RH  075%=      5-min Rain = 0
KHA3 270328Z 15011KT 24/20 A2987 RMK A01 T02420195  RH  075%=      5-min Rain = 0
KHA3 270329Z 15011KT 24/19 A2987 RMK A01 T02420194  RH  075%=      5-min Rain = 0
KHA3 270330Z 15011KT 24/20 A2987 RMK A01 T02420195  RH  075%=      5-min Rain = 0
KHA3 270331Z 15009KT 24/20 A2988 RMK A01 T02420195  RH  075%=      5-min Rain = 0
KHA3 270332Z 15010KT 24/20 A2988 RMK A01 T02420195  RH  075%=      5-min Rain = 0
KHA3 270333Z 14010KT 24/20 A2988 RMK A01 T02410195  RH  075%=      5-min Rain = 0
KHA3 270334Z 15010KT 24/20 A2988 RMK A01 T02410195  RH  075%=      5-min Rain = 0
KHA3 270335Z 15009KT 24/20 A2988 RMK A01 T02410195  RH  076%=      5-min Rain = 0
KHA3 270336Z 15010KT 24/20 A2988 RMK A01 T02410195  RH  076%=      5-min Rain = 0
KHA3 270337Z 15009KT 24/20 A2988 RMK A01 T02410195  RH  075%=      5-min Rain = 0
KHA3 270338Z 14010KT 24/20 A2988 RMK A01 T02410195  RH  075%=      5-min Rain = 0
KHA3 270339Z 15011KT 24/20 A2988 RMK A01 T02410195  RH  075%=      5-min Rain = 0
KHA3 270340Z 15009KT 24/19 A2988 RMK A01 T02410194  RH  075%=      5-min Rain = 0
KHA3 270341Z 15009KT 24/20 A2988 RMK A01 T02410195  RH  075%=      5-min Rain = 0
KHA3 270342Z 14011KT 24/19 A2988 RMK A01 T02410194  RH  075%=      5-min Rain = 0
KHA3 270343Z 15010KT 24/19 A2988 RMK A01 T02410194  RH  075%=      5-min Rain = 0
KHA3 270344Z 15011KT 24/20 A2988 RMK A01 T02410195  RH  075%=      5-min Rain = 0
KHA3 270345Z 15009KT 24/20 A2988 RMK A01 T02410195  RH  075%=      5-min Rain = 0
KHA3 270346Z 14010KT 24/20 A2988 RMK A01 T02400195  RH  076%=      5-min Rain = 0
KHA3 270347Z 14010KT 24/20 A2987 RMK A01 T02400195  RH  076%=      5-min Rain = 0
KHA3 270348Z 15011KT 24/19 A2987 RMK A01 T02400194  RH  076%=      5-min Rain = 0
KHA3 270349Z 14011KT 24/19 A2987 RMK A01 T02390194  RH  076%=      5-min Rain = 0
KHA3 270350Z 14012G17KT 24/20 A2987 RMK A01 T02400195  RH  076%=      5-min Rain = 0
KHA3 270351Z 15012KT 24/19 A2987 RMK A01 T02400194  RH  076%=      5-min Rain = 0
KHA3 270352Z 14012KT 24/19 A2987 RMK A01 T02400194  RH  075%=      5-min Rain = 0
KHA3 270353Z 14012KT 24/19 A2987 RMK A01 T02410194  RH  075%=      5-min Rain = 0
KHA3 270354Z 14011KT 24/20 A2987 RMK A01 T02400195  RH  076%=      5-min Rain = 0
KHA3 270355Z 14013KT 24/19 A2987 RMK A01 T02400194  RH  075%=      5-min Rain = 0
KHA3 270356Z 14013KT 24/19 A2987 RMK A01 T02410194  RH  075%=      5-min Rain = 0
KHA3 270357Z 14012KT 24/19 A2987 RMK A01 T02410194  RH  075%=      5-min Rain = 0
KHA3 270358Z 14012KT 24/19 A2986 RMK A01 T02410194  RH  075%=      5-min Rain = 0
KHA3 270359Z 14012KT 24/19 A2986 RMK A01 T02400194  RH  075%=      5-min Rain = 0
KHA3 270400Z 14011KT 24/19 A2986 RMK A01 T02400194  RH  075%=      5-min Rain = 0
KHA3 270401Z 14013KT 24/19 A2986 RMK A01 T02400194  RH  076%=      5-min Rain = 0
KHA3 270402Z 14013KT 24/19 A2986 RMK A01 T02400194  RH  076%=      5-min Rain = 0
KHA3 270403Z 14012KT 24/19 A2986 RMK A01 T02400194  RH  076%=      5-min Rain = 0
KHA3 270404Z 14012KT 24/19 A2986 RMK A01 T02400194  RH  076%=      5-min Rain = 0
KHA3 270405Z 14012KT 24/19 A2986 RMK A01 T02400194  RH  076%=      5-min Rain = 0
KHA3 270406Z 14012KT 24/19 A2986 RMK A01 T02390194  RH  076%=      5-min Rain = 0
KHA3 270407Z 14012G17KT 24/19 A2986 RMK A01 T02390194  RH  076%=      5-min Rain = 0
KHA3 270408Z 14012KT 24/19 A2986 RMK A01 T02390194  RH  076%=      5-min Rain = 0
KHA3 270409Z 14011KT 24/19 A2986 RMK A01 T02390194  RH  076%=      5-min Rain = 0
KHA3 270410Z 14013KT 24/19 A2986 RMK A01 T02380194  RH  076%=      5-min Rain = 0
KHA3 270411Z 14012KT 24/19 A2986 RMK A01 T02380194  RH  076%=      5-min Rain = 0
KHA3 270412Z 14011KT 24/19 A2986 RMK A01 T02390194  RH  076%=      5-min Rain = 0
KHA3 270413Z 14011KT 24/19 A2986 RMK A01 T02380194  RH  076%=      5-min Rain = 0
KHA3 270414Z 14012KT 24/19 A2986 RMK A01 T02380194  RH  076%=      5-min Rain = 0
KHA3 270415Z 14012KT 24/19 A2986 RMK A01 T02380194  RH  076%=      5-min Rain = 0
KHA3 270416Z 14012KT 24/19 A2986 RMK A01 T02380194  RH  076%=      5-min Rain = 0
KHA3 270417Z 14012KT 24/19 A2986 RMK A01 T02380194  RH  076%=      5-min Rain = 0
KHA3 270418Z 14012KT 24/19 A2986 RMK A01 T02380194  RH  076%=      5-min Rain = 0
KHA3 270419Z 14011KT 24/19 A2986 RMK A01 T02380194  RH  076%=      5-min Rain = 0
KHA3 270420Z 14010KT 24/19 A2986 RMK A01 T02380194  RH  076%=      5-min Rain = 0
KHA3 270421Z 14012G17KT 24/19 A2986 RMK A01 T02370194  RH  077%=      5-min Rain = 0
KHA3 270422Z 13012KT 24/19 A2986 RMK A01 T02370193  RH  077%=      5-min Rain = 0
KHA3 270423Z 14013KT 24/19 A2986 RMK A01 T02370194  RH  077%=      5-min Rain = 0
KHA3 270424Z 14012KT 24/19 A2986 RMK A01 T02370193  RH  077%=      5-min Rain = 0
KHA3 270425Z 14012G17KT 24/19 A2986 RMK A01 T02370193  RH  077%=      5-min Rain = 0
KHA3 270426Z 14012KT 24/19 A2986 RMK A01 T02370193  RH  076%=      5-min Rain = 0
KHA3 270427Z 14011KT 24/19 A2986 RMK A01 T02370194  RH  076%=      5-min Rain = 0
KHA3 270428Z 14013KT 24/19 A2986 RMK A01 T02370194  RH  077%=      5-min Rain = 0
KHA3 270429Z 14011KT 24/19 A2986 RMK A01 T02370194  RH  077%=      5-min Rain = 0
KHA3 270430Z 14010KT 24/19 A2986 RMK A01 T02370194  RH  077%=      5-min Rain = 0
KHA3 270431Z 14010KT 24/19 A2986 RMK A01 T02370194  RH  077%=      5-min Rain = 0
KHA3 270432Z 14012KT 24/19 A2986 RMK A01 T02370194  RH  077%=      5-min Rain = 0
KHA3 270433Z 14010KT 24/19 A2986 RMK A01 T02360194  RH  077%=      5-min Rain = 0
KHA3 270434Z 13010KT 24/19 A2986 RMK A01 T02360194  RH  077%=      5-min Rain = 0
KHA3 270435Z 14010KT 24/19 A2986 RMK A01 T02350194  RH  077%=      5-min Rain = 0
KHA3 270436Z 13010KT 24/19 A2986 RMK A01 T02350194  RH  078%=      5-min Rain = 0
KHA3 270437Z 14010KT 24/19 A2986 RMK A01 T02350194  RH  078%=      5-min Rain = 0
KHA3 270438Z 14010KT 24/19 A2986 RMK A01 T02350193  RH  078%=      5-min Rain = 0
KHA3 270439Z 14009KT 24/19 A2986 RMK A01 T02350193  RH  078%=      5-min Rain = 0
KHA3 270440Z 14011KT 24/19 A2986 RMK A01 T02350193  RH  078%=      5-min Rain = 0
KHA3 270441Z 13009KT 24/19 A2986 RMK A01 T02350193  RH  077%=      5-min Rain = 0
KHA3 270442Z 14012KT 24/19 A2986 RMK A01 T02350193  RH  077%=      5-min Rain = 0
KHA3 270443Z 14009KT 24/19 A2986 RMK A01 T02350193  RH  077%=      5-min Rain = 0
KHA3 270444Z 14010KT 24/19 A2986 RMK A01 T02350193  RH  078%=      5-min Rain = 0
KHA3 270445Z 14010KT 24/19 A2986 RMK A01 T02350194  RH  078%=      5-min Rain = 0
KHA3 270446Z 14010KT 23/19 A2986 RMK A01 T02340193  RH  078%=      5-min Rain = 0
KHA3 270447Z 14010KT 23/19 A2986 RMK A01 T02340193  RH  078%=      5-min Rain = 0
KHA3 270448Z 13010KT 23/19 A2986 RMK A01 T02340194  RH  078%=      5-min Rain = 0
KHA3 270449Z 13009KT 23/19 A2986 RMK A01 T02340194  RH  078%=      5-min Rain = 0
KHA3 270450Z 14009KT 23/19 A2986 RMK A01 T02330194  RH  078%=      5-min Rain = 0
KHA3 270451Z 13008KT 23/19 A2986 RMK A01 T02330193  RH  078%=      5-min Rain = 0
KHA3 270452Z 14009KT 23/19 A2986 RMK A01 T02330193  RH  079%=      5-min Rain = 0
KHA3 270453Z 14010KT 23/19 A2986 RMK A01 T02330193  RH  078%=      5-min Rain = 0
KHA3 270454Z 14010KT 23/19 A2986 RMK A01 T02330193  RH  078%=      5-min Rain = 0
KHA3 270455Z 14009KT 23/19 A2986 RMK A01 T02330193  RH  078%=      5-min Rain = 0
KHA3 270456Z 13009KT 23/19 A2986 RMK A01 T02330193  RH  079%=      5-min Rain = 0
KHA3 270457Z 14009KT 23/19 A2986 RMK A01 T02320193  RH  079%=      5-min Rain = 0
KHA3 270458Z 14010KT 23/19 A2986 RMK A01 T02320194  RH  079%=      5-min Rain = 0
KHA3 270459Z 14010KT 23/19 A2986 RMK A01 T02320193  RH  079%=      5-min Rain = 0

Page generated in 0.0322 seconds.